                ,  0.301,  0.397,  0.494,  0.590,  0.687,  0.784,  0.880,  0.977,  1.073,  1.170,  1.267,  1.363,  1.460,  1.556,  1.653,  1.749,  1.846,  1.943,  2.039,  2.136,  2.232,  2.329,  2.426,  2.522,  2.619,  2.715,  2.812,  2.909,  3.005,  3.102,  3.198,  3.295,  3.392,  3.488,  3.585,  3.681,  3.778,  3.875,  3.971,  4.068,  4.164,  4.261,  4.357,  4.454,  4.551,  4.647,  4.744,  4.840,  4.937,  5.034,  5.130,  5.227,  5.323,  5.420,  5.517,  5.613,  5.710,  5.806,  5.903,  6.000,  6.096,  6.193,  6.289,  6.386,  6.483,  6.579,  6.676,  6.772,  6.869,  6.965,  7.062,  7.159,  7.255,  7.352,  7.448,  7.545,  7.642,  7.738,  7.835,  7.931
2013/04/28 00:00,  999.0,    0.2,    0.4,   -0.5,    0.2,    0.8,   -0.0,   -0.3,    0.2,   -0.3,    1.3,  999.0,  999.0,  999.0,    3.4,    4.0,   12.0,    9.8,   16.0,   17.2,   21.2,   19.6,   20.8,   18.4,   17.6,  999.0,  999.0,  999.0,  999.0,    0.3,    0.2,   -0.2,    0.1,  999.0,    0.5,    0.1,   -0.2,   -0.1,   -0.4,   -0.5,   -0.2,   -0.3,   -0.4,    0.2,    0.2,   -0.0,   -0.2,   -0.1,  999.0,    0.4,    0.4,  999.0,  999.0,   -0.1,  999.0,    0.2,    0.2,   -0.1,  999.0,    0.9,   -0.5,    0.2,   -0.1,   -0.2,   -0.4,  999.0,    0.3,   -0.2,  999.0,  999.0,    0.3,  999.0,  999.0,  999.0,   -0.2,  999.0,  999.0,  999.0,  999.0,  999.0
2013/04/28 00:10,  999.0,   -0.4,   -0.1,    0.4,    1.2,    1.9,    0.2,    0.1,    1.7,    3.0,    4.9,    1.7,  999.0,  999.0,  999.0,  999.0,    7.4,    8.2,   11.3,   11.9,   14.7,   14.9,   15.0,   14.3,   15.5,   14.3,   15.8,    8.0,  999.0,  999.0,  999.0,   -0.1,   -0.2,  999.0,  999.0,  999.0,  999.0,   -0.1,  999.0,  999.0,  999.0,  999.0,    0.3,  999.0,   -0.4,    0.1,   -0.0,   -0.2,   -0.3,  999.0,    0.1,   -0.1,   -0.0,   -0.0,   -0.0,   -0.1,   -0.1,   -0.3,    0.1,    0.1,   -0.4,    0.2,   -0.0,    0.3,    0.3,   -0.3,  999.0,    0.1,    0.1,  999.0,  999.0,  999.0,  999.0,  999.0,  999.0,  999.0,  999.0,  999.0,  999.0,  999.0
2013/04/28 00:20,  999.0,    0.9,    1.2,    1.0,    0.6,    2.2,    0.9,    4.2,    3.3,    1.8,    2.2,   -0.2,    1.1,    1.2,  999.0,  999.0,  999.0,   15.4,   16.8,   20.0,   21.3,   22.6,  999.0,   20.1,   19.4,   17.6,   17.8,   14.4,  999.0,  999.0,    0.1,  999.0,   -0.1,    0.1,    0.1,   -0.2,  999.0,   -0.3,   -0.4,    0.1,   -0.5,   -0.2,    0.1,    0.0,  999.0,   -0.1,   -0.2,  999.0,   -0.2,   -0.5,   -0.3,   -0.2,   -0.0,    0.2,    0.1,    0.3,   -0.4,    0.1,   -0.0,    0.0,    0.1,    0.1,    0.3,    0.1,  999.0,    0.2,    0.2,   -0.2,   -0.3,   -0.0,  999.0,    0.1,  999.0,  999.0,  999.0,  999.0,  999.0,  999.0,  999.0,  999.0
2013/04/28 00:30,  999.0,    0.2,    0.8,    0.4,    0.7,  999.0,  999.0,    4.3,    0.5,    4.5,    6.5,  999.0,  999.0,  999.0,  999.0,   11.8,   14.4,   15.3,   17.8,   20.0,   19.9,   19.5,   20.0,   18.9,   18.8,  999.0,  999.0,  999.0,  999.0,  999.0,    1.5,   -0.1,  999.0,  999.0,  999.0,    0.1,   -0.3,   -0.1,  999.0,   -0.2,  999.0,   -0.4,  999.0,  999.0,   -0.1,    0.2,    0.3,   -0.4,   -0.0,   -0.1,  999.0,    0.1,  999.0,  999.0,  999.0,  999.0,   -0.4,  999.0,   -0.2,   -0.2,   -0.1,   -0.2,   -0.0,  999.0,  999.0,    0.3,    0.1,    0.1,   -0.1,  999.0,  999.0,  999.0,  999.0,  999.0,  999.0,  999.0,  999.0,  999.0,  999.0,  999.0
2013/04/28 00:40,  999.0,    1.8,    2.3,    1.2,    2.6,    3.4,    6.2,    6.4,  999.0,    5.2,    9.1,  999.0,  999.0,  999.0,  999.0,  999.0,   15.4,   18.3,   21.7,   23.8,   23.8,   24.9,   21.2,   20.9,   20.4,   19.9,   19.2,  999.0,  999.0,  999.0,  999.0,  999.0,  999.0,  999.0,  999.0,  999.0,  999.0,    0.2,  999.0,  999.0,    0.1,    0.2,   -0.2,   -0.1,    0.2,    0.2,  999.0,  999.0,    0.1,    0.2,  999.0,   -0.0,   -0.0,    0.3,    0.3,  999.0,  999.0,   -0.1,   -0.1,    0.1,    0.1,   -0.2,    0.1,  999.0,  999.0,  999.0,   -0.1,    0.3,    0.5,  999.0,    0.2,  999.0,  999.0,  999.0,  999.0,  999.0,  999.0,  999.0,  999.0,  999.0
2013/04/28 00:50,  999.0,    1.3,    2.9,    1.0,    3.1,    2.7,    1.4,    1.9,    1.7,    2.3,    3.3,    1.4,    2.5,    3.2,    5.2,    7.4,    8.0,  999.0,  999.0,    5.9,    3.7,    2.3,  999.0,  999.0,  999.0,  999.0,    0.1,   -0.0,  999.0,    3.9,    2.0,    0.2,    2.8,    0.5,    2.0,  999.0,    0.1,    0.2,  999.0,   -0.2,   -0.3,   -0.4,   -0.1,   -0.2,    0.4,    0.4,   -0.2,    0.4,    0.3,    0.4,   -0.2,    0.2,    0.2,    0.3,    0.2,   -0.2,    0.4,    0.1,    0.2,   -0.1,    0.0,    0.0,    0.0,    0.1,    0.5,    0.1,  999.0,    0.0,   -0.1,  999.0,  999.0,  999.0,  999.0,  999.0,   -0.1,   -0.1,  999.0,  999.0,  999.0,  999.0
2013/04/28 01:00,  999.0,   -0.1,    0.2,    0.5,    0.1,    0.3,    0.6,    1.0,    0.6,    0.2,  999.0,    0.6,    0.8,    1.2,    1.7,    4.0,  999.0,  999.0,  999.0,  999.0,    8.6,    8.1,    8.4,  999.0,    6.7,  999.0,  999.0,    0.2,   -0.3,   -0.3,    0.1,   -0.0,   -0.1,    0.1,    0.2,   -0.1,    0.2,   -0.1,   -0.2,    0.0,   -0.1,   -0.0,   -0.0,    0.1,   -0.1,   -0.2,    0.3,    0.1,   -0.3,   -0.3,   -0.0,   -0.1,   -0.0,   -0.0,    0.1,   -0.3,   -0.0,    0.2,    0.2,   -0.0,    0.1,   -0.2,   -0.1,   -0.0,    0.0,    0.1,   -0.0,    0.2,  999.0,  999.0,  999.0,  999.0,  999.0,  999.0,  999.0,  999.0,  999.0,  999.0,  999.0,  999.0
2013/04/28 01:10,  999.0,   -0.7,  999.0,    0.6,    0.0,   -0.1,    0.1,    0.3,    0.4,    0.1,    0.4,    2.3,    3.4,    5.0,    8.3,   12.3,  999.0,   14.5,   15.9,   17.6,   18.7,   19.0,   18.2,   20.6,   19.8,   14.8,   14.1,   10.8,    9.4,    5.5,    3.0,    1.3,    0.1,    0.0,   -0.1,    0.1,    0.3,   -0.1,    0.0,    0.2,   -0.3,   -0.5,   -0.1,  999.0,    0.2,    0.6,    0.1,    0.3,   -0.1,   -0.1,   -0.3,    0.3,    0.1,    0.1,   -0.3,   -0.3,   -0.0,   -0.1,   -0.0,   -0.1,    0.0,   -0.3,    0.1,   -0.2,    0.2,  999.0,    0.3,   -0.1,  999.0,  999.0,  999.0,  999.0,  999.0,  999.0,  999.0,  999.0,  999.0,  999.0,  999.0,  999.0
2013/04/28 01:20,  999.0,   -0.3,   -0.1,    0.0,    1.1,    1.1,    2.0,    4.1,    5.9,  999.0,    7.5,   10.8,   12.1,  999.0,  999.0,   11.3,   13.4,   15.6,  999.0,  999.0,   15.3,   18.7,   14.0,    3.2,  999.0,    8.3,    6.2,    3.0,    2.5,    3.3,    0.2,    0.1,    2.0,    0.5,   -0.1,   -0.3,   -0.0,   -0.2,   -0.1,   -0.1,    0.2,   -0.3,   -0.1,  999.0,   -0.1,   -0.1,    0.0,   -0.2,    0.0,  999.0,    0.0,   -0.1,   -0.2,    0.2,    0.1,    0.1,   -0.2,   -0.1,   -0.1,   -0.0,   -0.2,    0.0,   -0.3,   -0.0,    0.1,   -0.2,  999.0,   -0.1,    0.1,  999.0,    0.5,    0.4,  999.0,  999.0,  999.0,  999.0,  999.0,  999.0,  999.0,  999.0
2013/04/28 01:30,  999.0,    0.1,    0.7,   -0.0,    1.1,    1.3,    2.9,    3.8,    5.5,    6.7,    6.7,    9.3,   10.2,   12.6,   13.1,   15.4,   16.3,   16.5,  999.0,  999.0,  999.0,  999.0,  999.0,  999.0,    3.6,    4.5,    3.9,    0.3,    2.1,    1.6,   -0.0,    0.0,    0.3,    0.1,   -0.0,    0.2,   -0.1,    0.2,   -0.1,   -0.4,   -0.1,   -0.3,   -0.0,   -0.1,    0.0,   -0.1,    0.1,   -0.0,  999.0,    0.0,  999.0,  999.0,    0.5,   -0.0,    0.0,    0.1,    0.2,   -0.1,    0.0,    0.1,   -0.1,    0.1,   -0.2,   -0.1,    0.2,   -0.5,  999.0,  999.0,    0.2,  999.0,    0.1,  999.0,  999.0,  999.0,    0.2,  999.0,  999.0,  999.0,  999.0,  999.0
2013/04/28 01:40,  999.0,   -0.3,    0.6,    1.8,    2.9,    4.2,    6.5,    9.1,   10.1,   12.4,   16.7,   17.5,   16.9,   17.8,   20.6,   18.9,   19.1,  999.0,   18.8,  999.0,  999.0,    1.0,    1.1,    0.2,    0.1,    0.1,    0.3,   -0.1,   -0.0,    0.2,    0.1,    0.0,    0.1,    0.1,    0.0,    0.0,    0.0,   -0.0,    0.1,    0.1,   -0.3,   -0.2,   -0.1,   -0.2,   -0.1,    0.1,    0.2,   -0.1,   -0.1,    0.1,   -0.0,    0.0,   -0.1,   -0.0,    0.0,    0.1,   -0.1,    0.4,    0.2,   -0.2,   -0.3,   -0.2,   -0.1,    0.0,    0.1,    0.1,   -0.0,    0.1,    0.0,    0.1,  999.0,    0.1,  999.0,  999.0,  999.0,   -0.3,  999.0,  999.0,  999.0,  999.0
2013/04/28 01:50,  999.0,    0.4,    2.5,    1.9,    4.1,    5.1,    7.6,    8.2,    8.0,  999.0,  999.0,  999.0,  999.0,   18.1,   20.6,   18.5,   16.1,   13.7,  999.0,  999.0,  999.0,   -0.0,    0.9,    0.5,    0.2,    0.1,   -0.4,    0.1,   -0.2,    0.0,   -0.1,   -0.0,    0.1,   -0.1,    0.2,    0.4,    0.2,   -0.5,   -0.1,   -0.0,   -0.3,   -0.0,   -0.0,    0.1,    0.1,    0.0,  999.0,   -0.1,   -0.1,   -0.2,    0.1,    0.2,    0.1,    0.4,    0.4,   -0.2,    0.1,  999.0,   -0.3,   -0.4,  999.0,   -0.1,    0.0,   -0.3,    0.1,    0.2,  999.0,    0.0,    0.3,    0.0,  999.0,  999.0,   -0.0,  999.0,  999.0,  999.0,  999.0,  999.0,  999.0,  999.0
2013/04/28 02:00,  999.0,    0.3,    1.2,    2.8,    3.0,    3.9,    7.7,    8.5,    6.3,    7.5,    7.2,    5.7,  999.0,  999.0,   11.6,    9.7,    6.8,    4.2,    2.3,    1.3,    0.2,    0.0,   -0.0,   -0.2,    0.4,    0.1,    0.6,    0.3,    0.1,   -0.4,    0.1,   -0.2,   -0.2,   -0.1,   -0.0,    0.2,   -0.2,   -0.0,   -0.0,   -0.0,   -0.4,    0.0,   -0.2,   -0.0,   -0.2,   -0.0,  999.0,    0.1,    0.1,    0.1,   -0.1,   -0.2,    0.3,   -0.1,    0.2,  999.0,    0.2,    0.4,   -0.2,   -0.0,    0.2,   -0.0,   -0.1,    0.6,    0.2,    0.1,    0.0,    0.1,    0.3,  999.0,  999.0,  999.0,  999.0,  999.0,    0.2,    0.1,  999.0,  999.0,  999.0,  999.0
2013/04/28 02:10,  999.0,    0.7,    0.7,    0.8,    2.7,    1.9,    1.7,    2.0,    0.8,    2.5,    3.9,    4.9,    3.3,    2.9,    3.1,    3.6,    1.7,    1.0,    0.9,    0.5,    0.4,    0.1,    0.1,    0.0,    0.2,    0.1,    0.2,    0.2,    0.4,    0.1,   -0.1,    0.2,   -0.0,   -0.0,    0.4,    0.2,    0.2,   -0.1,   -0.1,   -0.1,   -0.1,   -0.2,   -0.1,   -0.2,   -0.0,    0.1,    0.1,    0.0,   -0.1,    0.2,    0.1,    0.1,    0.1,    0.1,   -0.1,    0.2,   -0.0,   -0.0,   -0.1,   -0.1,    0.0,   -0.1,   -0.3,   -0.1,    0.1,  999.0,   -0.0,  999.0,  999.0,    0.2,   -0.1,    0.1,   -0.0,   -0.1,    0.1,  999.0,  999.0,  999.0,  999.0,  999.0
2013/04/28 02:20,  999.0,    0.5,    1.3,    1.0,    3.5,    4.5,    2.6,  999.0,    1.1,  999.0,    3.3,    6.6,    5.8,    4.2,    6.0,    6.1,    2.5,    1.3,    0.4,    0.5,   -0.2,   -0.0,    0.4,    0.3,    0.1,    0.1,    0.1,   -0.1,    0.1,    0.1,    0.1,   -0.0,    0.1,   -0.2,   -0.2,    0.1,    0.2,    0.3,    0.1,   -0.2,   -0.2,   -0.2,   -0.4,   -0.1,   -0.1,   -0.0,    0.1,   -0.1,    0.1,   -0.2,    0.1,   -0.1,    0.3,   -0.1,    0.3,   -0.2,   -0.0,    0.1,    0.1,   -0.2,    0.0,    0.2,   -0.2,    0.2,    0.0,    0.4,    0.0,   -0.0,    0.1,    0.1,    0.2,  999.0,   -0.3,  999.0,    0.2,  999.0,  999.0,  999.0,  999.0,  999.0
2013/04/28 02:30,  999.0,    0.1,    0.2,    0.1,    0.4,    1.3,    1.4,    1.2,    1.2,    1.6,    1.4,    1.4,    0.6,    1.9,    1.9,    1.7,    1.9,    2.1,    1.2,    0.2,   -0.0,    0.3,    0.5,    0.2,   -0.0,    0.1,    0.3,    0.2,    0.2,    0.1,    0.3,   -0.1,    0.0,    0.1,    0.1,    0.2,    0.1,    0.1,    0.2,    0.0,   -0.1,   -0.0,   -0.0,   -0.1,   -0.0,   -0.1,   -0.1,   -0.1,   -0.2,    0.2,    0.0,   -0.1,   -0.0,    0.0,    0.1,    0.0,   -0.1,   -0.0,    0.0,   -0.2,    0.0,    0.0,   -0.1,   -0.1,   -0.2,  999.0,   -0.2,  999.0,   -0.4,  999.0,   -0.2,   -0.5,  999.0,    0.1,  999.0,   -0.2,  999.0,  999.0,  999.0,  999.0
2013/04/28 02:40,  999.0,   -0.1,    0.1,    0.4,    0.6,    0.1,    0.2,   -0.0,    1.2,    1.8,    1.6,    1.5,    0.5,    0.8,    0.8,    1.0,    1.1,    0.5,    1.0,    1.4,    0.4,    0.1,    0.3,    0.2,    0.1,    0.2,    0.3,    0.2,    0.2,    0.5,    0.0,   -0.0,   -0.1,   -0.0,    0.1,   -0.0,    0.2,    0.1,    0.1,   -0.1,   -0.1,   -0.1,   -0.1,   -0.1,    0.1,    0.1,    0.1,    0.1,    0.1,   -0.1,   -0.1,   -0.1,   -0.0,    0.2,    0.1,    0.2,    0.0,    0.4,   -0.1,   -0.1,    0.2,    0.0,   -0.1,   -0.3,    0.2,    0.1,   -0.1,  999.0,    0.2,   -0.1,   -0.3,    0.1,    0.2,   -0.0,  999.0,  999.0,  999.0,  999.0,  999.0,  999.0
2013/04/28 02:50,  999.0,   -0.0,    0.0,    0.1,    0.2,    0.1,    0.2,    0.4,    0.1,    0.1,    0.4,    0.6,    0.7,    1.2,    1.5,    0.6,    0.7,    1.3,    1.2,    1.0,   -0.0,   -0.6,    0.2,    0.2,    0.1,    0.0,    0.1,    0.5,    0.3,    0.1,    0.0,   -0.3,   -0.1,   -0.1,    0.3,    0.2,    0.2,    0.2,    0.0,   -0.0,   -0.4,   -0.1,    0.1,    0.1,    0.0,   -0.2,    0.0,    0.3,    0.0,    0.1,   -0.2,   -0.0,    0.0,    0.1,   -0.1,    0.0,   -0.1,    0.3,    0.0,    0.0,   -0.2,    0.2,    0.3,    0.0,   -0.0,    0.0,   -0.0,   -0.2,    0.4,    0.1,  999.0,    0.3,   -0.1,    0.0,   -0.1,  999.0,  999.0,  999.0,  999.0,  999.0
2013/04/28 03:00,  999.0,  999.0,    0.1,   -0.1,   -0.0,    0.2,    0.3,   -0.0,    0.1,    0.1,    0.1,    0.6,    0.3,    0.1,    0.1,    0.2,    0.0,    0.1,    0.2,    0.3,    0.3,    1.0,    0.2,    1.0,    0.5,    0.3,   -0.2,    0.0,    0.2,   -0.1,    0.3,    0.1,   -0.1,   -0.1,   -0.0,    0.1,   -0.0,   -0.1,   -0.1,   -0.2,   -0.2,   -0.0,   -0.2,   -0.1,   -0.1,   -0.0,    0.0,   -0.1,   -0.0,    0.1,    0.0,    0.1,    0.3,   -0.1,   -0.1,    0.2,    0.0,   -0.0,    0.1,   -0.1,    0.2,    0.1,    0.0,   -0.3,    0.1,   -0.0,   -0.1,  999.0,   -0.1,    0.0,    0.1,    0.1,  999.0,  999.0,    0.4,  999.0,  999.0,  999.0,  999.0,  999.0
2013/04/28 03:10,  999.0,    0.2,   -0.2,   -0.2,    0.1,    0.3,    0.4,    0.3,    0.6,    0.4,    0.5,    0.3,    0.4,    0.3,    0.1,    0.4,    0.5,    0.6,    0.4,    0.4,    0.2,    0.2,    1.0,    1.2,  999.0,    0.1,    0.0,   -0.1,    0.2,   -0.0,   -0.0,    0.1,   -0.1,    0.1,   -0.3,   -0.2,    0.0,    0.0,   -0.0,   -0.0,   -0.3,   -0.1,   -0.0,   -0.1,   -0.1,    0.0,   -0.1,    0.1,    0.3,    0.2,    0.2,    0.1,   -0.1,   -0.1,    0.1,   -0.1,   -0.1,   -0.1,    0.1,   -0.1,    0.1,   -0.1,    0.2,   -0.0,   -0.1,  999.0,  999.0,    0.0,    0.0,    0.0,    0.1,   -0.0,   -0.5,  999.0,    0.3,  999.0,  999.0,  999.0,  999.0,  999.0
2013/04/28 03:20,  999.0,   -0.1,   -0.6,   -0.5,   -0.2,    0.1,    0.4,    0.3,    0.6,    0.4,    0.0,    0.5,    0.4,    0.2,    0.2,    0.3,    0.5,    0.7,    0.4,    0.2,    0.3,    2.2,    1.6,    0.9,    0.6,   -0.1,    0.4,    0.7,    0.3,    0.0,    0.2,    0.1,    0.0,   -0.2,   -0.1,    0.1,    0.1,   -0.1,    0.2,    0.1,   -0.2,   -0.3,  999.0,   -0.1,   -0.2,   -0.3,   -0.2,    0.0,  999.0,   -0.2,    0.0,   -0.2,    0.1,   -0.1,   -0.3,   -0.2,    0.1,    0.2,   -0.0,    0.2,    0.2,    0.0,   -0.1,   -0.1,  999.0,    0.1,    0.3,   -0.0,  999.0,    0.1,   -0.1,  999.0,    0.1,   -0.2,  999.0,  999.0,  999.0,  999.0,  999.0,  999.0
2013/04/28 03:30,  999.0,   -0.1,   -0.7,   -0.6,    0.4,    0.6,    0.3,    0.2,    0.7,    0.5,    0.5,    0.2,    0.7,    0.5,    0.2,    0.2,    0.6,    1.2,    1.1,    1.1,    2.6,  999.0,    0.3,    1.0,    0.1,    0.1,    0.2,    0.5,    0.3,   -0.2,    0.0,   -0.0,    0.1,   -0.1,  999.0,   -0.1,    0.1,   -0.3,   -0.3,    0.1,   -0.1,   -0.2,    0.0,   -0.2,    0.0,   -0.2,    0.1,   -0.0,   -0.2,  999.0,  999.0,    0.3,   -0.2,    0.1,    0.7,  999.0,  999.0,   -0.1,    0.0,    0.0,   -0.2,    0.0,    0.6,    0.3,   -0.2,   -0.3,    0.3,    0.0,   -0.3,  999.0,    0.1,    0.0,  999.0,   -0.0,  999.0,  999.0,  999.0,  999.0,  999.0,  999.0
2013/04/28 03:40,  999.0,    0.1,    1.8,  999.0,    2.1,  999.0,    5.8,    5.5,    3.4,    2.7,    2.4,    1.9,    1.0,    0.9,    0.5,    0.0,    0.4,    0.7,    1.3,    1.7,    2.5,    2.9,    1.9,    1.7,    0.7,    0.7,    0.4,    0.2,    0.3,    0.2,   -0.0,   -0.1,   -0.0,  999.0,   -0.1,   -0.3,    0.1,    0.1,    0.1,    0.1,    0.1,    0.2,    0.0,    0.1,  999.0,  999.0,    0.1,  999.0,   -0.2,   -0.0,   -0.5,   -0.2,   -0.4,   -0.1,    0.3,   -0.4,  999.0,   -0.2,    0.0,  999.0,   -0.2,   -0.3,  999.0,  999.0,    0.1,    0.2,  999.0,  999.0,  999.0,  999.0,  999.0,  999.0,  999.0,  999.0,  999.0,  999.0,  999.0,  999.0,  999.0,  999.0
2013/04/28 03:50,  999.0,    1.2,    1.3,    0.8,    1.5,    0.5,   -0.9,   -0.3,    0.4,    0.9,  999.0,    1.2,    0.5,   -0.2,    0.5,    0.2,    0.6,    1.5,    2.6,    2.5,    4.1,  999.0,  999.0,    1.7,    2.0,   -0.4,   -0.2,    0.4,    0.2,   -0.0,   -0.0,   -0.0,   -0.1,   -0.2,    0.0,   -0.1,   -0.0,  999.0,    0.0,   -0.5,   -0.4,   -0.7,   -0.2,    0.1,    0.2,    0.1,    0.1,    0.3,   -0.4,  999.0,    0.0,  999.0,  999.0,  999.0,  999.0,    0.2,  999.0,  999.0,    0.1,  999.0,  999.0,  999.0,   -0.5,  999.0,  999.0,  999.0,  999.0,  999.0,  999.0,  999.0,  999.0,  999.0,  999.0,  999.0,  999.0,  999.0,  999.0,  999.0,  999.0,  999.0
2013/04/28 04:00,  999.0,   -0.0,   -0.1,   -0.4,    0.4,   -0.2,    0.2,    0.1,    0.2,    1.2,    2.7,  999.0,  999.0,    0.7,  999.0,    1.5,    1.3,    1.0,    1.2,    2.2,    0.6,    0.3,    0.3,   -0.5,    1.7,  999.0,    0.1,    0.6,    0.1,    0.0,   -0.1,    0.4,    0.1,    0.1,    0.0,    0.0,   -0.1,   -0.3,   -0.1,  999.0,    0.3,    0.1,  999.0,   -0.2,   -0.0,  999.0,    0.2,   -0.1,    0.1,   -0.1,   -0.1,   -0.1,   -0.3,    0.1,  999.0,    0.2,   -0.3,  999.0,  999.0,  999.0,  999.0,  999.0,  999.0,  999.0,  999.0,  999.0,  999.0,  999.0,  999.0,  999.0,    0.0,  999.0,  999.0,  999.0,  999.0,  999.0,  999.0,  999.0,  999.0,  999.0
2013/04/28 04:10,  999.0,    0.1,    0.2,    0.6,   -0.2,    1.1,    2.7,    1.6,    0.2,    0.6,    5.1,    2.8,    3.1,    4.6,    5.2,    3.3,    3.9,    3.1,    2.1,    2.1,  999.0,  999.0,  999.0,  999.0,  999.0,   -0.5,    0.6,    0.1,    0.2,    0.2,    0.7,  999.0,    0.1,   -0.0,    0.0,  999.0,  999.0,  999.0,  999.0,   -0.2,  999.0,  999.0,    0.0,    0.1,   -0.0,    0.1,  999.0,   -0.3,   -0.2,   -0.4,    0.2,   -0.0,    0.1,   -0.0,    0.0,    0.1,    0.1,   -0.3,  999.0,  999.0,  999.0,  999.0,  999.0,   -0.3,    0.2,  999.0,  999.0,  999.0,  999.0,  999.0,    0.2,  999.0,  999.0,  999.0,  999.0,  999.0,  999.0,  999.0,  999.0,  999.0
2013/04/28 04:20,  999.0,   -0.2,   -0.6,    0.5,    0.0,    0.5,    0.9,   -0.1,    1.8,  999.0,  999.0,  999.0,    4.0,    3.3,    1.8,    2.3,    2.4,    2.3,    1.7,    0.1,  999.0,  999.0,    1.5,  999.0,   -0.7,  999.0,  999.0,  999.0,    0.4,    0.1,    0.4,  999.0,   -0.2,   -0.1,  999.0,    0.2,    0.1,    0.1,  999.0,  999.0,  999.0,  999.0,   -0.0,   -0.0,   -0.0,   -0.4,  999.0,  999.0,    0.2,   -0.2,   -0.2,   -0.1,    0.2,   -0.1,  999.0,    0.2,   -0.3,  999.0,  999.0,  999.0,   -0.3,  999.0,   -0.2,    0.2,   -0.2,  999.0,  999.0,  999.0,  999.0,  999.0,  999.0,    0.1,  999.0,  999.0,  999.0,   -0.6,  999.0,  999.0,  999.0,  999.0
2013/04/28 04:30,  999.0,  999.0,  999.0,   -0.5,   -0.9,    0.9,    3.4,    0.8,    1.0,  999.0,    5.2,    5.1,  999.0,    7.7,    2.3,   -0.5,    0.3,    0.2,    0.4,    0.6,    0.9,  999.0,  999.0,    2.2,    1.0,    0.9,   -0.1,   -0.4,    0.2,    0.2,   -0.2,  999.0,    0.0,    0.0,   -0.1,  999.0,    0.2,  999.0,  999.0,  999.0,   -0.7,   -0.3,  999.0,   -0.2,   -0.1,  999.0,  999.0,    0.3,   -0.3,   -0.2,    0.2,   -0.0,    0.1,  999.0,  999.0,    0.1,   -0.2,   -0.2,  999.0,  999.0,   -0.0,    0.0,    0.2,  999.0,  999.0,  999.0,   -0.0,  999.0,    0.2,  999.0,  999.0,  999.0,  999.0,  999.0,  999.0,  999.0,  999.0,  999.0,  999.0,  999.0
2013/04/28 04:40,  999.0,    0.5,  999.0,    0.8,    0.6,    0.3,    0.8,    0.5,    0.1,    0.8,   -0.6,    0.7,    1.2,   -0.4,   -2.4,   -2.8,   -2.0,   -0.6,    1.4,   -0.1,  999.0,  999.0,   -0.4,  999.0,    0.0,   -0.4,    0.4,   -0.1,    0.0,  999.0,   -0.2,    0.6,   -0.2,    0.1,    0.0,   -0.2,    0.0,    0.2,  999.0,    0.1,   -0.3,  999.0,   -0.1,   -0.1,   -0.1,    0.1,    0.1,    0.1,  999.0,    0.1,    0.1,   -0.1,    0.1,    0.2,   -0.3,  999.0,    0.1,   -0.3,  999.0,   -0.0,  999.0,    0.1,  999.0,  999.0,  999.0,  999.0,  999.0,  999.0,  999.0,  999.0,   -0.1,  999.0,  999.0,  999.0,  999.0,  999.0,  999.0,  999.0,  999.0,  999.0
2013/04/28 04:50,  999.0,    0.0,    0.2,    0.6,    0.4,    0.2,    0.2,    0.2,    0.3,    1.0,    0.3,   -0.1,   -0.2,   -0.4,   -0.4,   -0.1,   -0.5,    1.9,   10.0,    7.7,    1.4,    9.7,   -0.0,    4.3,   -0.8,   -0.7,  999.0,   -0.2,  999.0,    0.1,    0.3,  999.0,  999.0,  999.0,  999.0,   -0.3,   -0.3,  999.0,   -0.1,    0.3,   -0.4,   -0.4,    0.2,    0.1,  999.0,    0.1,   -0.2,  999.0,    0.3,   -0.1,    0.3,   -0.0,   -0.2,  999.0,    0.1,   -0.1,  999.0,  999.0,   -0.0,    0.4,    0.3,    0.3,    0.2,  999.0,  999.0,   -0.0,  999.0,  999.0,  999.0,  999.0,  999.0,  999.0,  999.0,  999.0,  999.0,  999.0,  999.0,  999.0,  999.0,  999.0
2013/04/28 05:00,  999.0,    0.2,    0.2,    0.1,    0.0,    0.0,    0.4,    0.3,    0.2,    0.1,    0.2,    0.1,   -0.7,   -0.9,   -1.8,  999.0,  999.0,  999.0,    0.1,   -0.1,   -0.6,    0.0,   -0.0,   -0.5,   -0.5,   -0.2,    0.1,    0.3,   -0.0,   -0.2,    0.1,    0.2,   -0.4,  999.0,   -0.2,   -0.2,   -0.3,   -0.3,   -0.1,    0.1,   -0.5,   -0.4,   -0.1,    0.0,  999.0,    0.2,    0.0,   -0.1,   -0.3,   -0.2,  999.0,   -0.3,   -0.0,    0.0,    0.0,    0.3,    0.3,  999.0,    0.1,  999.0,  999.0,   -0.0,    0.3,    0.1,   -0.4,    0.0,  999.0,  999.0,  999.0,  999.0,  999.0,  999.0,   -0.1,    0.3,  999.0,   -0.0,  999.0,  999.0,  999.0,  999.0
2013/04/28 05:10,  999.0,  999.0,   -0.2,   -0.1,   -0.0,   -0.0,  999.0,   -0.2,    0.0,    0.4,    0.3,    0.5,    0.4,    0.1,    0.1,   -0.0,   -0.3,   -0.2,   -0.2,   -0.1,   -0.1,   -0.2,   -0.1,   -0.3,    0.0,   -0.2,   -0.1,   -0.1,    0.0,   -0.1,    0.1,    0.4,    0.3,    0.3,  999.0,   -0.1,   -0.4,   -0.1,    0.4,   -0.2,   -0.2,   -0.3,   -0.1,   -0.3,   -0.3,   -0.2,   -0.0,   -0.1,    0.1,    0.0,   -0.1,    0.1,   -0.0,    0.2,   -0.1,    0.1,    0.1,    0.0,  999.0,   -0.1,   -0.0,   -0.0,    0.1,   -0.2,  999.0,   -0.4,  999.0,  999.0,  999.0,  999.0,  999.0,  999.0,  999.0,  999.0,  999.0,    0.1,  999.0,  999.0,  999.0,  999.0
2013/04/28 05:20,  999.0,  999.0,  999.0,  999.0,  999.0,    0.1,   -0.0,    0.3,    0.2,    0.1,   -0.3,   -0.1,    0.5,    0.4,    8.8,    9.8,    9.9,    7.1,    5.4,   -0.1,   -0.3,   -0.2,   -0.1,    0.0,  999.0,   -0.3,    0.1,    0.0,    0.1,   -0.2,   -0.1,    0.1,   -0.1,   -0.4,    0.4,  999.0,   -0.1,   -0.1,   -0.3,   -0.1,   -0.4,   -0.2,   -0.3,   -0.1,    0.4,   -0.1,    0.1,  999.0,  999.0,    0.1,    0.3,    0.3,    0.1,   -0.3,   -0.3,   -0.4,   -0.3,  999.0,    0.1,  999.0,   -0.1,    0.1,   -0.2,   -0.3,    0.4,  999.0,  999.0,  999.0,  999.0,  999.0,  999.0,  999.0,    0.3,  999.0,  999.0,  999.0,  999.0,  999.0,  999.0,  999.0
2013/04/28 05:30,  999.0,    0.1,    0.1,    0.1,    0.2,    0.1,    0.2,    0.3,  999.0,  999.0,  999.0,  999.0,  999.0,  999.0,    5.4,    1.8,   -0.2,   -0.2,   -0.1,   -0.0,   -0.0,   -0.0,   -0.2,   -0.1,   -0.3,   -0.2,   -0.0,   -0.2,   -0.1,   -0.1,    0.1,   -0.0,    0.1,    0.1,    0.2,    0.1,    0.1,   -0.1,    0.1,    0.3,   -0.3,   -0.5,   -0.1,   -0.3,    0.2,   -0.1,    0.1,  999.0,   -0.1,   -0.1,   -0.3,   -0.2,   -0.2,   -0.0,    0.0,    0.2,    0.4,   -0.3,  999.0,    0.2,    0.3,   -0.1,   -0.1,   -0.1,   -0.2,  999.0,  999.0,    0.6,  999.0,  999.0,    0.1,  999.0,    0.2,    0.0,  999.0,  999.0,  999.0,  999.0,  999.0,  999.0
2013/04/28 05:40,  999.0,  999.0,    0.1,    0.1,    0.1,  999.0,    0.2,    0.2,    0.0,    0.0,   -0.0,    0.1,   -0.2,    0.0,   -0.3,   -0.0,    0.2,    0.0,   -0.2,    0.0,    0.0,    0.0,   -0.2,    0.0,   -0.1,   -0.1,   -0.0,   -0.0,   -0.3,   -0.2,   -0.0,    0.1,   -0.0,    0.1,  999.0,    0.1,   -0.1,   -0.1,    0.2,   -0.0,    0.1,   -0.2,   -0.3,    0.1,   -0.1,   -0.3,   -0.1,   -0.0,    0.1,    0.3,   -0.0,    0.2,   -0.0,   -0.1,   -0.0,    0.0,    0.1,   -0.1,   -0.1,    0.0,   -0.0,  999.0,    0.0,   -0.3,    0.1,   -0.3,   -0.1,    0.1,  999.0,  999.0,   -0.2,  999.0,  999.0,  999.0,  999.0,  999.0,  999.0,  999.0,  999.0,  999.0
2013/04/28 05:50,  999.0,   -0.0,   -0.1,    0.2,    0.3,    0.3,    0.2,  999.0,    0.3,    0.3,    0.8,    0.5,    0.3,    0.3,    0.3,    0.3,    0.1,    0.0,   -0.1,    0.0,   -0.2,    0.1,    0.1,    0.1,   -0.0,   -0.1,   -0.0,   -0.0,    0.1,   -0.0,   -0.1,    0.0,   -0.1,    0.0,   -0.0,   -0.4,   -0.0,    0.1,   -0.1,   -0.1,  999.0,   -0.3,   -0.0,  999.0,    0.6,   -0.0,   -0.2,    0.6,   -0.1,   -0.1,   -0.1,  999.0,   -0.0,    0.0,    0.5,  999.0,   -0.0,    0.2,    0.4,   -0.1,  999.0,    0.1,    0.3,    0.1,    0.2,  999.0,  999.0,   -0.1,  999.0,  999.0,   -0.4,    0.0,  999.0,  999.0,  999.0,  999.0,  999.0,  999.0,  999.0,  999.0
2013/04/28 06:00,  999.0,   -0.0,   -0.1,    0.1,   -0.0,    0.2,   -0.1,   -0.1,    0.2,    4.1,    7.2,    4.4,    8.0,    0.6,    2.4,    4.5,    0.5,    0.5,    0.2,    0.1,    0.1,    0.0,    0.2,    0.8,    0.2,    0.0,    0.2,   -0.1,    0.1,    0.2,    0.1,    0.1,    0.2,    0.1,   -0.1,   -0.0,    0.3,    0.3,  999.0,   -0.1,   -0.2,  999.0,   -0.1,    0.0,   -0.1,    0.1,   -0.2,   -0.0,    0.0,   -0.1,   -0.2,  999.0,   -0.1,  999.0,   -0.1,    0.1,    0.2,  999.0,    0.0,  999.0,   -0.5,    0.1,    0.3,   -0.0,    0.3,    0.0,  999.0,   -0.2,   -0.1,   -0.5,  999.0,   -0.5,  999.0,  999.0,    0.2,  999.0,  999.0,  999.0,  999.0,  999.0
2013/04/28 06:10,  999.0,  999.0,   -0.1,    0.0,    0.1,   -0.0,    0.1,    0.2,    0.2,  999.0,    0.7,    0.7,   -0.0,  999.0,  999.0,  999.0,    5.5,    6.2,    6.5,    5.1,    0.3,    0.1,   -0.0,   -0.1,   -0.2,   -0.1,   -0.2,   -0.1,   -0.1,    0.0,    0.1,   -0.0,   -0.0,  999.0,   -0.1,   -0.0,    0.1,   -0.1,   -0.4,  999.0,   -0.4,   -0.1,   -0.2,  999.0,    0.0,    0.0,    0.0,    0.0,   -0.0,   -0.3,   -0.1,    0.3,    0.2,    0.0,   -0.0,    0.1,    0.2,    0.2,  999.0,    0.1,    0.0,   -0.2,   -0.3,   -0.1,   -0.1,    0.3,    0.2,  999.0,   -0.3,  999.0,    0.1,   -0.1,    0.1,  999.0,  999.0,  999.0,  999.0,  999.0,  999.0,  999.0
2013/04/28 06:20,  999.0,    0.0,   -0.0,  999.0,    0.1,  999.0,   -0.1,   -0.2,    0.0,    0.1,   -0.1,   -0.1,   -0.1,    0.1,   -0.0,    0.3,    0.0,   -0.2,   -0.0,   -0.2,   -0.3,    0.0,   -0.1,   -0.0,    0.1,    0.0,   -0.1,    0.0,    0.1,    0.2,   -0.1,   -0.0,   -0.1,   -0.1,   -0.1,    0.1,    0.1,   -0.1,   -0.6,   -0.0,   -0.0,   -0.0,   -0.0,    0.0,   -0.1,   -0.3,    0.2,    0.1,    0.0,   -0.1,   -0.1,   -0.0,   -0.1,    0.0,    0.2,   -0.0,   -0.2,    0.1,    0.2,    0.1,    0.1,    0.0,   -0.1,    0.0,    0.0,    0.1,   -0.2,   -0.1,    0.1,  999.0,    0.0,    0.1,    0.2,    0.2,  999.0,  999.0,  999.0,  999.0,  999.0,  999.0
2013/04/28 06:30,  999.0,    0.0,    0.1,    0.0,   -0.2,    0.1,    0.1,    0.0,    0.1,   -0.1,    0.2,   -0.4,   -0.4,   -0.4,   -0.4,   -0.3,   -0.4,   -0.2,   -0.1,   -0.0,    0.1,   -0.1,   -0.0,    0.1,    0.1,   -0.1,   -0.2,   -0.1,   -0.0,   -0.0,    0.0,    0.1,   -0.1,   -0.0,    0.2,   -0.0,   -0.2,   -0.5,   -0.1,   -0.0,   -0.3,   -0.0,    0.0,   -0.3,   -0.2,   -0.2,   -0.3,   -0.2,    0.1,   -0.1,    0.0,   -0.1,    0.0,    0.1,    0.0,   -0.1,   -0.1,    0.2,   -0.1,    0.2,    0.0,   -0.2,    0.2,    0.5,    0.0,   -0.3,   -0.1,    0.0,    0.1,    0.3,   -0.0,    0.0,   -0.4,  999.0,  999.0,  999.0,  999.0,  999.0,  999.0,  999.0
2013/04/28 06:40,  999.0,  999.0,    0.0,  999.0,    0.0,  999.0,  999.0,   -0.0,   -0.2,   -0.1,   -0.0,    0.0,   -0.0,    0.0,   -0.2,    0.2,    0.2,   -0.2,   -0.2,   -0.1,    0.0,    0.0,   -0.1,   -0.1,    0.1,    0.0,   -0.1,   -0.1,   -0.0,    0.3,    0.0,    0.1,    0.1,   -0.0,   -0.0,   -0.1,    0.1,  999.0,   -0.0,   -0.1,   -0.2,   -0.1,   -0.3,    0.2,    0.0,   -0.0,    0.1,   -0.4,   -0.0,   -0.2,   -0.2,   -0.2,   -0.0,   -0.0,    0.1,   -0.3,    0.1,   -0.2,    0.5,   -0.5,  999.0,    0.1,    0.1,    0.1,    0.1,    0.0,    0.3,  999.0,    0.2,   -0.1,  999.0,   -0.4,  999.0,  999.0,   -0.2,  999.0,  999.0,  999.0,  999.0,  999.0
2013/04/28 06:50,  999.0,  999.0,   -0.1,   -0.1,    0.1,    0.2,  999.0,   -0.2,  999.0,   -0.1,    0.2,   -0.0,    0.1,    0.3,    0.1,   -0.0,   -0.1,   -0.1,   -0.0,   -0.0,    0.1,   -0.1,   -0.2,   -0.1,   -0.0,   -0.0,    0.0,   -0.1,    0.0,    0.2,   -0.0,   -0.1,    0.0,   -0.0,    0.1,   -0.1,    0.0,   -0.1,   -0.0,   -0.1,   -0.3,   -0.1,   -0.0,    0.0,   -0.1,    0.0,    0.3,   -0.1,   -0.1,    0.0,    0.2,    0.2,    0.2,   -0.0,   -0.3,   -0.2,   -0.1,    0.2,    0.1,   -0.3,    0.0,    0.1,    0.2,    0.1,   -0.0,   -0.0,    0.1,    0.3,    0.1,    0.1,    0.2,  999.0,  999.0,    0.0,  999.0,  999.0,  999.0,  999.0,  999.0,  999.0
2013/04/28 07:00,  999.0,  999.0,   -0.0,  999.0,   -0.0,  999.0,   -0.1,    0.1,    0.1,    0.1,    0.3,    0.1,    0.0,    0.0,    0.1,    0.0,    0.0,    0.1,   -0.0,    0.0,    0.1,   -0.0,    0.1,    0.2,    0.0,   -0.2,    0.0,    0.1,   -0.1,   -0.1,    0.0,    0.0,   -0.0,   -0.1,   -0.1,    0.1,    0.2,    0.1,    0.0,    0.0,    0.1,   -0.0,   -0.1,   -0.1,   -0.1,    0.0,    0.0,    0.0,    0.3,   -0.2,    0.1,   -0.1,    0.0,   -0.0,    0.1,   -0.0,    0.0,   -0.1,    0.2,   -0.3,    0.1,    0.2,    0.2,   -0.2,    0.1,    0.2,    0.2,   -0.1,   -0.1,   -0.0,    0.1,   -0.4,   -0.5,   -0.3,  999.0,  999.0,  999.0,  999.0,  999.0,  999.0
2013/04/28 07:10,  999.0,  999.0,   -0.0,    0.0,  999.0,    0.0,   -0.1,   -0.1,    0.1,    0.4,    0.5,    0.4,    0.2,    0.3,    0.3,    0.1,    0.1,   -0.0,   -0.0,   -0.1,   -0.0,    0.0,    0.1,    0.1,    0.0,   -0.1,   -0.2,   -0.1,   -0.0,   -0.0,    0.0,   -0.1,    0.1,    0.1,   -0.1,   -0.0,    0.1,    0.1,    0.1,    0.1,    0.1,   -0.1,   -0.2,   -0.1,    0.1,    0.0,   -0.1,    0.1,    0.0,    0.1,    0.1,   -0.0,   -0.1,   -0.1,   -0.1,   -0.1,    0.2,    0.1,    0.0,    0.1,   -0.0,    0.2,    0.1,    0.2,    0.0,    0.0,    0.2,   -0.2,    0.1,    0.1,   -0.3,   -0.1,   -0.2,   -0.5,  999.0,  999.0,  999.0,  999.0,  999.0,  999.0
2013/04/28 07:20,  999.0,    0.0,   -0.0,  999.0,  999.0,  999.0,  999.0,  999.0,  999.0,    0.0,   -0.1,   -0.1,   -0.0,    0.0,   -0.2,   -0.0,  999.0,   -0.0,   -0.1,   -0.1,  999.0,   -0.1,   -0.2,  999.0,    0.1,   -0.0,   -0.1,   -0.1,   -0.1,    0.1,   -0.0,   -0.3,   -0.1,   -0.1,    0.0,   -0.1,   -0.1,    0.1,    0.1,   -0.1,   -0.1,   -0.1,    0.2,    0.1,    0.0,    0.0,    0.2,    0.2,   -0.0,    0.1,   -0.1,   -0.0,   -0.0,    0.1,    0.1,   -0.1,    0.0,    0.1,   -0.1,   -0.2,   -0.1,   -0.0,   -0.1,    0.1,    0.2,   -0.0,    0.1,    0.1,   -0.1,   -0.3,   -0.2,   -0.3,    0.1,    0.1,  999.0,  999.0,  999.0,  999.0,  999.0,  999.0
2013/04/28 07:30,  999.0,  999.0,    0.0,    0.0,   -0.0,   -0.1,   -0.0,   -0.0,    0.1,    0.1,    0.1,   -0.1,    0.1,    0.1,   -0.0,   -0.1,   -0.2,   -0.2,  999.0,   -0.1,  999.0,    0.0,   -0.2,   -0.1,    0.1,   -0.0,   -0.1,    0.1,   -0.0,    0.0,  999.0,   -0.1,   -0.0,   -0.0,    0.0,   -0.0,   -0.0,   -0.0,    0.1,    0.2,   -0.0,   -0.2,   -0.1,   -0.1,   -0.2,    0.1,    0.1,   -0.1,   -0.0,    0.1,    0.1,   -0.0,   -0.1,   -0.0,    0.1,    0.1,   -0.2,   -0.1,   -0.1,   -0.0,   -0.2,   -0.0,   -0.0,    0.0,   -0.1,    0.1,    0.1,   -0.1,    0.1,   -0.1,    0.0,   -0.1,   -0.2,    0.1,   -0.0,    0.4,  999.0,  999.0,  999.0,  999.0
2013/04/28 07:40,  999.0,  999.0,   -0.0,   -0.0,   -0.0,   -0.0,    0.0,   -0.1,    0.1,   -0.0,    0.0,    0.0,    0.0,  999.0,   -0.1,   -0.0,    0.2,    0.1,  999.0,   -0.1,   -0.0,   -0.0,    0.0,    0.0,   -0.0,   -0.0,   -0.1,    0.0,    0.1,    0.0,   -0.1,   -0.1,   -0.1,   -0.1,   -0.0,    0.0,    0.0,   -0.1,   -0.0,   -0.1,   -0.0,   -0.2,   -0.1,   -0.0,   -0.1,   -0.1,    0.0,    0.1,   -0.0,    0.1,   -0.0,   -0.1,    0.2,   -0.0,   -0.0,   -0.2,    0.2,    0.3,    0.1,    0.0,   -0.1,   -0.1,   -0.0,   -0.0,   -0.1,   -0.1,    0.1,    0.1,   -0.1,    0.0,    0.0,    0.2,    0.2,   -0.0,   -0.1,  999.0,  999.0,  999.0,  999.0,  999.0
2013/04/28 07:50,  999.0,  999.0,    0.0,    0.0,    0.0,   -0.0,    0.1,    0.1,    0.0,   -0.0,   -0.0,   -0.0,   -0.1,   -0.0,   -0.1,  999.0,    0.0,   -0.1,    0.0,    0.0,    0.0,    0.0,   -0.1,    0.1,   -0.0,    0.0,   -0.1,   -0.0,   -0.1,   -0.2,    0.1,   -0.0,   -0.0,   -0.0,    0.1,   -0.1,    0.0,   -0.1,   -0.1,    0.1,   -0.2,   -0.1,   -0.0,    0.2,    0.0,    0.0,   -0.0,   -0.1,   -0.0,    0.0,   -0.0,   -0.0,   -0.0,   -0.2,   -0.1,   -0.0,   -0.1,    0.1,   -0.0,   -0.1,    0.0,    0.1,    0.0,    0.1,    0.0,    0.0,   -0.2,    0.2,   -0.0,   -0.1,    0.1,    0.3,    0.2,   -0.0,   -0.1,  999.0,   -0.0,  999.0,  999.0,  999.0
2013/04/28 08:00,  999.0,  999.0,    0.1,    0.0,   -0.0,    0.1,   -0.1,    0.1,    0.0,    0.1,   -0.0,    0.0,    0.0,   -0.1,   -0.0,   -0.0,   -0.0,   -0.1,   -0.0,    0.0,   -0.0,    0.0,   -0.0,   -0.1,    0.0,    0.2,    0.1,   -0.0,    0.0,    0.2,    0.1,   -0.0,    0.0,   -0.1,    0.0,    0.1,   -0.1,   -0.0,   -0.0,    0.1,   -0.1,    0.2,    0.1,    0.0,   -0.2,   -0.0,    0.0,    0.1,   -0.0,   -0.0,   -0.1,   -0.1,   -0.0,   -0.1,   -0.1,    0.1,    0.1,   -0.1,    0.0,    0.1,   -0.0,    0.0,   -0.1,   -0.1,    0.0,    0.1,    0.0,    0.2,    0.1,    0.1,    0.1,    0.1,   -0.0,   -0.1,   -0.1,  999.0,  999.0,  999.0,  999.0,  999.0
2013/04/28 08:10,  999.0,  999.0,    0.0,    0.0,    0.0,    0.0,    0.0,   -0.0,   -0.1,   -0.0,    0.0,    0.0,   -0.0,    0.0,    0.0,    0.0,   -0.0,   -0.1,    0.1,   -0.1,    0.0,    0.0,   -0.0,    0.0,    0.0,    0.1,   -0.1,  999.0,   -0.1,    0.2,   -0.1,   -0.0,    0.0,   -0.0,    0.0,    0.0,    0.0,    0.1,   -0.0,   -0.0,   -0.2,    0.0,    0.0,   -0.1,   -0.1,    0.0,    0.0,    0.1,    0.0,   -0.1,    0.0,    0.0,   -0.0,   -0.1,   -0.0,   -0.0,   -0.1,    0.1,    0.1,    0.2,    0.0,    0.0,    0.2,   -0.1,   -0.1,   -0.0,   -0.1,   -0.1,    0.1,    0.2,    0.2,   -0.1,   -0.1,   -0.1,    0.1,  999.0,  999.0,  999.0,  999.0,  999.0
2013/04/28 08:20,  999.0,  999.0,   -0.0,   -0.0,   -0.0,   -0.0,   -0.0,    0.0,    0.1,   -0.1,   -0.1,   -0.1,   -0.1,   -0.0,    0.0,    0.0,    0.0,   -0.1,    0.0,   -0.0,    0.0,   -0.1,   -0.1,   -0.0,   -0.0,   -0.0,    0.0,  999.0,   -0.1,    0.0,   -0.1,   -0.0,   -0.1,   -0.1,    0.0,    0.0,    0.0,    0.0,   -0.0,   -0.1,   -0.1,   -0.1,   -0.1,    0.0,    0.0,    0.1,    0.1,    0.0,   -0.0,   -0.0,    0.0,   -0.1,    0.1,   -0.0,    0.1,    0.1,   -0.0,   -0.0,   -0.0,   -0.1,    0.0,   -0.0,   -0.0,   -0.1,    0.1,    0.1,   -0.2,    0.1,    0.2,   -0.1,    0.0,    0.0,   -0.1,   -0.1,    0.0,    0.1,  999.0,  999.0,  999.0,  999.0
2013/04/28 08:30,  999.0,  999.0,   -0.0,    0.0,   -0.0,    0.1,    0.1,  999.0,    0.0,   -0.1,    0.2,    0.1,    0.0,   -0.0,   -0.0,   -0.1,   -0.0,   -0.0,   -0.0,   -0.1,    0.1,    0.1,    0.1,    0.2,    0.1,   -0.1,   -0.1,    0.1,    0.1,    0.1,   -0.0,   -0.0,   -0.1,   -0.0,    0.0,    0.1,    0.0,    0.0,   -0.1,   -0.0,   -0.1,   -0.1,   -0.0,    0.2,   -0.0,   -0.1,   -0.0,   -0.0,   -0.0,    0.1,   -0.1,   -0.1,    0.0,   -0.0,    0.2,    0.2,   -0.1,   -0.1,   -0.0,    0.1,    0.1,   -0.0,   -0.2,   -0.0,    0.0,   -0.1,    0.1,   -0.1,    0.1,   -0.1,   -0.0,   -0.1,   -0.0,   -0.1,   -0.0,    0.0,  999.0,  999.0,  999.0,  999.0
2013/04/28 08:40,  999.0,    0.1,   -0.0,   -0.1,   -0.0,    0.0,   -0.0,    0.1,    0.0,    0.0,    0.1,   -0.0,   -0.1,    0.0,   -0.1,   -0.0,   -0.0,    0.0,    0.0,   -0.1,   -0.0,   -0.1,   -0.1,    0.0,   -0.0,    0.1,    0.0,    0.1,    0.1,   -0.0,  999.0,    0.0,    0.1,    0.0,    0.1,    0.1,   -0.0,   -0.0,   -0.0,   -0.0,    0.0,    0.0,   -0.1,   -0.1,   -0.3,   -0.1,   -0.0,   -0.0,    0.1,   -0.0,    0.0,   -0.1,   -0.2,   -0.1,   -0.1,   -0.1,    0.0,    0.0,   -0.1,   -0.0,   -0.1,   -0.0,    0.0,   -0.0,   -0.1,    0.2,    0.1,   -0.0,   -0.0,   -0.2,   -0.1,   -0.0,    0.1,   -0.1,    0.0,  999.0,  999.0,  999.0,  999.0,  999.0
2013/04/28 08:50,  999.0,  999.0,   -0.2,    0.0,   -0.0,   -0.0,    0.1,   -0.1,    0.1,   -0.0,   -0.1,    0.1,    0.1,   -0.0,   -0.1,   -0.0,    0.1,    0.0,   -0.1,   -0.0,   -0.0,    0.0,   -0.1,   -0.1,    0.0,    0.1,   -0.1,    0.2,    0.0,    0.1,    0.1,   -0.0,    0.0,    0.0,    0.0,    0.0,    0.0,   -0.0,   -0.0,   -0.0,    0.0,   -0.0,    0.1,    0.1,    0.1,    0.0,    0.0,    0.0,    0.1,    0.2,    0.0,    0.0,   -0.0,   -0.0,   -0.1,    0.0,   -0.2,    0.0,    0.1,   -0.0,    0.2,   -0.1,    0.2,   -0.1,    0.0,    0.0,    0.1,   -0.0,    0.1,    0.2,    0.1,    0.1,    0.1,   -0.1,    0.0,  999.0,  999.0,  999.0,  999.0,  999.0
2013/04/28 09:00,  999.0,    0.1,   -0.0,    0.2,   -0.0,   -0.3,  999.0,    0.1,    0.1,    0.2,  999.0,    0.2,    0.0,   -0.2,   -0.0,    0.0,   -0.0,   -0.0,   -0.0,   -0.1,   -0.1,    0.0,    0.0,   -0.0,   -0.1,    0.1,   -0.0,   -0.3,   -0.1,   -0.1,   -0.0,   -0.1,    0.0,   -0.0,    0.0,    0.0,   -0.1,   -0.1,    0.0,    0.0,    0.0,   -0.1,    0.0,   -0.0,   -0.1,   -0.1,   -0.2,   -0.0,   -0.1,   -0.1,   -0.1,   -0.1,   -0.0,    0.0,   -0.1,   -0.1,   -0.2,   -0.1,   -0.1,    0.0,   -0.2,    0.1,    0.1,    0.1,   -0.1,   -0.0,    0.0,   -0.0,    0.1,    0.1,   -0.0,   -0.0,   -0.2,    0.0,    0.1,  999.0,  999.0,  999.0,  999.0,  999.0
2013/04/28 09:10,  999.0,  999.0,   -0.0,    0.0,   -0.1,    0.1,    0.0,   -0.0,  999.0,    0.1,    0.0,    0.2,    0.1,    0.1,    0.1,    0.1,    0.1,  999.0,  999.0,    0.2,    0.1,    0.1,   -0.1,    0.1,    0.0,   -0.1,    0.1,    0.1,   -0.1,    0.1,    0.0,   -0.1,    0.0,   -0.0,    0.1,    0.1,    0.0,    0.0,    0.0,   -0.1,   -0.1,    0.0,    0.1,    0.1,   -0.1,   -0.1,   -0.1,   -0.2,   -0.3,   -0.0,   -0.2,   -0.1,    0.0,   -0.1,    0.0,   -0.0,    0.0,    0.2,    0.2,    0.1,   -0.2,   -0.0,   -0.1,   -0.1,    0.1,   -0.1,    0.1,    0.1,    0.0,    0.1,    0.0,    0.3,   -0.1,   -0.0,   -0.1,    0.1,  999.0,  999.0,  999.0,  999.0
2013/04/28 09:20,  999.0,  999.0,   -0.1,   -0.1,    0.1,   -0.0,    0.0,   -0.0,   -0.0,   -0.1,   -0.1,   -0.0,    0.1,   -0.0,   -0.1,    0.0,   -0.0,   -0.1,   -0.1,   -0.0,   -0.0,    0.0,    0.0,    0.1,   -0.1,    0.1,    0.0,    0.1,    0.0,    0.0,   -0.1,   -0.1,   -0.1,   -0.1,    0.0,    0.0,   -0.0,    0.1,   -0.0,    0.0,   -0.0,   -0.1,    0.2,    0.1,   -0.0,   -0.1,   -0.2,    0.1,    0.0,    0.0,   -0.0,    0.0,    0.1,   -0.1,   -0.0,   -0.2,    0.1,   -0.0,   -0.2,    0.1,   -0.2,   -0.1,   -0.1,   -0.0,   -0.1,   -0.1,   -0.2,   -0.1,   -0.2,  999.0,    0.1,   -0.3,   -0.1,   -0.2,   -0.2,  999.0,   -0.4,  999.0,  999.0,  999.0
2013/04/28 09:30,  999.0,  999.0,    0.0,    0.0,    0.0,   -0.0,   -0.0,    0.0,   -0.1,    0.1,    0.0,    0.1,    0.1,    0.1,    0.0,    0.1,    0.1,   -0.0,   -0.0,   -0.0,  999.0,    0.1,    0.1,   -0.0,   -0.0,   -0.1,    0.0,    0.1,    0.1,   -0.0,    0.0,    0.1,    0.0,    0.0,    0.0,   -0.0,    0.0,   -0.0,    0.0,    0.1,   -0.0,   -0.1,   -0.1,    0.2,   -0.0,   -0.1,   -0.1,    0.1,    0.1,    0.1,   -0.2,   -0.0,   -0.0,    0.0,   -0.1,    0.0,   -0.1,   -0.1,   -0.2,   -0.1,   -0.0,    0.0,   -0.0,   -0.0,   -0.1,    0.0,   -0.0,    0.1,    0.1,   -0.1,    0.0,   -0.1,   -0.2,    0.2,    0.0,  999.0,  999.0,  999.0,  999.0,  999.0
2013/04/28 09:40,  999.0,  999.0,   -0.0,   -0.0,    0.1,    0.1,    0.0,   -0.1,   -0.0,   -0.1,    0.0,   -0.0,    0.0,   -0.1,   -0.0,    0.1,    0.2,    0.0,   -0.0,    0.0,   -0.0,   -0.1,   -0.0,    0.0,    0.1,   -0.0,  999.0,    0.2,    0.0,   -0.1,    0.1,   -0.0,   -0.1,   -0.0,   -0.0,    0.0,   -0.1,    0.1,    0.0,   -0.0,   -0.0,   -0.1,   -0.1,    0.0,   -0.0,   -0.1,   -0.1,    0.0,   -0.1,   -0.0,    0.0,   -0.0,   -0.0,    0.1,    0.0,    0.0,    0.1,    0.0,   -0.2,    0.0,   -0.2,   -0.1,   -0.0,    0.2,    0.1,    0.0,    0.2,    0.1,    0.0,    0.0,    0.1,   -0.1,    0.1,    0.0,   -0.1,   -0.0,  999.0,  999.0,  999.0,  999.0
2013/04/28 09:50,  999.0,  999.0,    0.0,   -0.1,   -0.0,   -0.0,    0.0,   -0.0,    0.0,   -0.0,   -0.0,    0.1,   -0.0,   -0.1,   -0.1,   -0.1,   -0.0,    0.0,   -0.0,   -0.0,    0.0,   -0.1,   -0.1,    0.0,    0.1,    0.0,   -0.0,   -0.1,    0.1,   -0.0,   -0.0,    0.1,   -0.0,   -0.1,    0.0,    0.1,   -0.0,   -0.0,    0.0,    0.0,    0.0,   -0.0,   -0.1,    0.0,    0.1,    0.1,    0.1,   -0.0,    0.0,    0.1,    0.2,    0.0,   -0.1,   -0.2,   -0.2,    0.1,   -0.0,    0.0,   -0.1,   -0.1,    0.0,    0.1,    0.1,    0.0,   -0.0,   -0.1,    0.0,   -0.1,   -0.1,    0.0,    0.2,    0.2,    0.1,    0.0,    0.1,  999.0,  999.0,  999.0,  999.0,  999.0
2013/04/28 10:00,  999.0,  999.0,   -0.0,   -0.1,    0.0,    0.1,    0.1,    0.0,   -0.1,   -0.1,   -0.0,    0.1,    0.0,   -0.0,   -0.0,   -0.1,   -0.0,    0.0,    0.0,    0.1,   -0.0,    0.0,    0.0,    0.1,    0.0,    0.0,    0.0,   -0.1,    0.1,    0.1,    0.1,    0.1,   -0.0,   -0.0,    0.0,    0.1,   -0.0,   -0.0,    0.0,    0.2,   -0.2,   -0.1,   -0.1,   -0.0,    0.0,    0.1,    0.2,    0.1,    0.1,    0.1,   -0.0,   -0.0,   -0.0,    0.1,   -0.0,   -0.0,   -0.2,    0.1,    0.0,    0.0,    0.2,    0.2,    0.0,   -0.0,   -0.1,    0.1,    0.1,   -0.1,   -0.4,    0.2,    0.3,    0.0,   -0.0,   -0.0,    0.1,  999.0,  999.0,  999.0,  999.0,  999.0
2013/04/28 10:10,  999.0,  999.0,   -0.0,    0.1,   -0.0,   -0.1,   -0.1,   -0.1,   -0.0,   -0.0,   -0.0,    0.1,   -0.0,   -0.0,   -0.0,    0.0,   -0.0,    0.1,    0.0,    0.0,   -0.1,   -0.0,   -0.0,    0.0,    0.0,    0.0,  999.0,   -0.1,    0.0,   -0.1,    0.0,    0.0,    0.2,   -0.1,   -0.1,   -0.1,   -0.0,   -0.0,    0.0,    0.0,    0.0,   -0.1,   -0.0,   -0.1,    0.0,    0.1,    0.1,    0.1,   -0.0,   -0.0,    0.1,    0.0,    0.1,   -0.1,   -0.1,    0.1,   -0.1,   -0.1,   -0.0,    0.1,   -0.0,    0.1,    0.2,   -0.0,    0.1,    0.1,   -0.1,   -0.2,   -0.0,    0.1,    0.1,   -0.1,   -0.0,   -0.0,    0.0,  999.0,  999.0,  999.0,  999.0,  999.0
2013/04/28 10:20,  999.0,  999.0,   -0.0,   -0.1,   -0.1,    0.0,   -0.0,    0.1,    0.0,   -0.0,   -0.1,   -0.2,   -0.1,   -0.1,   -0.0,    0.1,    0.1,    0.0,    0.1,    0.0,   -0.0,    0.0,    0.0,    0.1,    0.0,   -0.0,    0.0,   -0.1,   -0.1,   -0.1,   -0.0,   -0.1,    0.0,   -0.0,   -0.0,   -0.0,    0.0,   -0.0,    0.0,    0.0,   -0.1,   -0.2,   -0.0,    0.1,   -0.0,   -0.1,   -0.0,    0.0,    0.2,    0.1,   -0.0,    0.0,    0.1,   -0.1,    0.1,   -0.0,   -0.0,    0.1,   -0.1,   -0.0,    0.1,    0.1,    0.1,    0.1,   -0.0,   -0.1,   -0.0,    0.0,   -0.0,    0.1,    0.1,   -0.1,    0.1,   -0.0,   -0.0,  999.0,  999.0,  999.0,  999.0,  999.0
2013/04/28 10:30,  999.0,   -0.0,   -0.0,    0.1,    0.0,    0.0,   -0.0,   -0.0,    0.0,   -0.0,   -0.0,    0.1,   -0.1,    0.0,    0.0,    0.0,    0.0,   -0.0,    0.1,   -0.0,   -0.0,    0.0,   -0.1,    0.0,    0.1,    0.1,    0.3,    0.1,   -0.2,    0.1,   -0.1,    0.2,   -0.1,   -0.0,    0.0,    0.1,    0.0,    0.0,   -0.0,    0.1,    0.0,   -0.0,    0.1,   -0.1,   -0.0,    0.1,    0.2,   -0.0,   -0.1,   -0.0,   -0.2,    0.0,   -0.0,   -0.1,   -0.2,   -0.1,    0.1,   -0.0,   -0.2,    0.1,   -0.1,   -0.1,   -0.2,   -0.1,    0.0,    0.0,    0.1,    0.0,    0.1,   -0.1,    0.0,   -0.1,    0.1,   -0.2,    0.0,  999.0,    0.3,  999.0,  999.0,  999.0
2013/04/28 10:40,  999.0,  999.0,    0.1,   -0.0,    0.1,    0.2,    0.0,    0.0,    0.1,   -0.0,   -0.1,   -0.2,   -0.0,    0.1,   -0.0,   -0.0,    0.0,    0.0,   -0.1,   -0.0,   -0.0,    0.0,    0.0,    0.1,    0.3,    0.3,  999.0,    0.0,    0.0,   -0.3,  999.0,    0.1,   -0.0,   -0.1,    0.0,    0.2,    0.0,    0.1,   -0.1,    0.0,   -0.1,   -0.2,    0.0,   -0.0,   -0.2,   -0.1,    0.0,    0.1,    0.0,    0.1,   -0.1,    0.0,    0.2,    0.0,   -0.0,   -0.0,    0.1,   -0.1,    0.1,   -0.1,    0.0,    0.2,   -0.0,   -0.0,   -0.0,   -0.1,   -0.0,   -0.1,    0.1,   -0.1,    0.0,    0.2,    0.1,    0.0,   -0.1,    0.0,  999.0,  999.0,  999.0,  999.0
2013/04/28 10:50,  999.0,  999.0,   -0.1,    0.1,    0.0,   -0.0,    0.0,   -0.0,   -0.0,    0.1,    0.2,   -0.0,   -0.0,   -0.0,   -0.1,   -0.2,   -0.1,   -0.0,  999.0,   -0.0,   -0.0,    0.1,   -0.0,   -0.0,    0.2,    0.1,    0.2,    0.3,    0.0,   -0.1,   -0.0,    0.1,    0.0,   -0.0,   -0.0,    0.1,    0.1,   -0.1,   -0.1,   -0.1,   -0.1,   -0.0,    0.0,    0.1,   -0.0,   -0.0,    0.1,   -0.1,   -0.0,    0.1,    0.1,   -0.1,   -0.0,    0.0,   -0.1,    0.0,   -0.1,    0.1,   -0.0,   -0.1,   -0.0,    0.1,   -0.1,    0.2,   -0.1,   -0.2,   -0.0,   -0.2,   -0.1,   -0.2,  999.0,   -0.2,   -0.1,    0.0,   -0.0,  999.0,  999.0,  999.0,  999.0,  999.0
2013/04/28 11:00,  999.0,  999.0,   -0.0,    0.0,   -0.1,   -0.0,   -0.0,  999.0,   -0.0,    0.1,    0.1,    0.1,   -0.0,   -0.1,   -0.1,   -0.0,    0.0,   -0.1,   -0.1,   -0.1,    0.0,   -0.0,  999.0,  999.0,    0.0,    0.2,    0.0,  999.0,   -0.2,   -0.1,    0.0,   -0.1,   -0.0,   -0.0,    0.0,    0.0,    0.0,   -0.0,   -0.0,   -0.1,   -0.1,   -0.0,   -0.0,   -0.0,   -0.1,   -0.2,    0.0,    0.1,   -0.1,    0.1,    0.0,    0.2,   -0.0,   -0.0,   -0.0,    0.0,    0.0,    0.0,    0.1,   -0.0,    0.3,    0.0,    0.0,    0.0,    0.0,   -0.1,    0.3,    0.1,   -0.1,    0.1,   -0.2,   -0.3,   -0.1,    0.0,    0.0,   -0.1,  999.0,  999.0,  999.0,  999.0
2013/04/28 11:10,  999.0,  999.0,   -0.1,   -0.0,   -0.1,  999.0,   -0.1,  999.0,    0.1,    0.0,    0.0,   -0.0,    0.0,   -0.0,    0.2,  999.0,    0.1,    0.2,   -0.2,  999.0,  999.0,   -0.0,   -0.9,   -0.5,   -0.2,    0.0,    0.5,   -0.4,    0.1,    0.1,   -0.1,   -0.0,    0.2,   -0.0,    0.1,    0.1,    0.2,   -0.1,    0.1,    0.1,   -0.1,   -0.1,    0.0,    0.1,   -0.0,   -0.0,   -0.1,   -0.0,    0.1,    0.2,   -0.0,    0.0,   -0.0,   -0.1,   -0.1,   -0.1,   -0.1,    0.1,   -0.1,    0.0,   -0.1,    0.1,   -0.2,   -0.1,   -0.1,    0.3,    0.3,    0.4,   -0.0,    0.1,    0.1,    0.1,   -0.0,  999.0,   -0.3,  999.0,  999.0,  999.0,  999.0,  999.0
2013/04/28 11:20,  999.0,    0.0,   -0.1,    0.0,   -0.1,    0.1,   -0.2,  999.0,   -0.0,    0.2,    0.2,    0.3,    0.1,    0.3,    0.1,    0.2,    0.1,    0.2,    0.4,    0.2,   -0.2,   -0.2,   -0.1,    0.1,    0.4,    0.9,    0.2,    0.1,    0.1,    0.1,    0.0,    0.1,    0.0,   -0.0,   -0.1,   -0.0,   -0.1,    0.0,    0.0,   -0.1,   -0.1,   -0.2,   -0.1,   -0.1,    0.1,    0.1,    0.1,   -0.0,    0.2,    0.1,    0.0,    0.0,    0.0,   -0.1,   -0.0,   -0.0,    0.0,    0.1,   -0.0,    0.2,    0.0,   -0.0,    0.1,    0.1,    0.1,    0.0,    0.1,    0.3,    0.1,   -0.1,    0.1,   -0.0,   -0.2,   -0.3,   -0.2,  999.0,  999.0,  999.0,  999.0,  999.0
2013/04/28 11:30,  999.0,    0.3,    0.5,    0.5,    0.1,    0.1,    0.0,    0.2,    0.3,    0.4,    0.7,    0.4,    0.4,    0.3,    0.0,    0.2,    0.1,    0.2,    0.3,    0.3,    0.1,    0.1,    0.2,   -0.6,  999.0,  999.0,   -0.5,    0.9,    0.5,    0.1,   -0.1,   -0.0,   -0.0,   -0.1,   -0.1,   -0.1,   -0.1,    0.3,   -0.1,   -0.1,    0.0,   -0.4,   -0.2,   -0.2,   -0.0,   -0.0,   -0.0,   -0.0,   -0.2,   -0.1,   -0.3,    0.1,    0.1,   -0.1,   -0.2,   -0.1,   -0.3,   -0.6,    0.1,    0.3,  999.0,    0.0,    0.1,    0.2,   -0.0,    0.2,    0.2,  999.0,   -0.2,  999.0,    0.0,   -0.1,  999.0,    0.1,    0.1,  999.0,  999.0,  999.0,  999.0,  999.0
2013/04/28 11:40,  999.0,  999.0,   -0.2,    0.0,    0.1,    0.1,   -0.1,   -0.1,    0.1,    0.0,    0.5,    0.1,    0.4,    0.3,    0.3,    0.1,    0.3,    0.3,    0.2,    0.1,    0.1,    0.1,   -0.7,   -0.2,   -0.5,  999.0,   -0.5,    0.4,    1.2,    0.9,   -0.3,    0.1,   -0.1,   -0.0,   -0.1,    0.1,   -0.0,   -0.2,    0.2,    0.2,    0.0,   -0.2,    0.1,    0.2,    0.0,    0.1,    0.0,    0.2,    0.0,    0.0,   -0.0,   -0.1,   -0.2,   -0.3,   -0.1,   -0.1,    0.1,   -0.0,   -0.0,    0.3,    0.1,   -0.1,   -0.3,   -0.2,   -0.3,   -0.2,   -0.1,  999.0,   -0.2,    0.1,    0.2,    0.2,   -0.1,    0.2,    0.4,  999.0,  999.0,  999.0,  999.0,  999.0
2013/04/28 11:50,  999.0,  999.0,   -0.0,   -0.0,    0.2,    0.1,   -0.1,   -0.1,    0.0,    0.2,    0.3,    0.2,    0.1,   -0.1,   -0.2,   -0.1,   -0.1,   -0.1,    0.0,    0.1,   -0.0,   -0.1,    0.1,    0.0,   -0.4,    0.0,   -0.2,   -0.4,   -0.7,   -2.9,    0.5,  999.0,   -0.3,    0.0,   -0.1,    0.1,    0.1,    0.5,   -0.1,    0.1,   -0.3,    0.1,    0.2,   -0.1,    0.0,   -0.0,    0.1,   -0.0,    0.0,    0.0,   -0.0,   -0.0,   -0.0,   -0.1,   -0.0,   -0.1,   -0.1,    0.0,   -0.0,   -0.0,    0.1,    0.0,   -0.2,    0.1,    0.1,    0.2,  999.0,   -0.5,    0.1,  999.0,   -0.0,   -0.3,  999.0,    0.1,  999.0,  999.0,  999.0,  999.0,  999.0,  999.0
2013/04/28 12:00,  999.0,    0.1,    0.1,    0.1,    0.1,    0.4,    0.3,    0.1,    0.4,    0.5,    0.2,    0.2,    0.3,   -0.0,    0.2,    0.2,    0.3,    0.4,    0.4,    0.3,    0.2,    0.2,    0.4,    0.0,    0.1,    0.4,    0.7,    0.3,  999.0,   -1.0,   -0.3,    0.5,    0.1,   -0.1,   -0.3,   -0.1,    0.1,    0.3,    0.0,    0.0,   -0.1,   -0.1,   -0.1,   -0.1,   -0.0,    0.1,    0.2,    0.1,   -0.1,  999.0,   -0.1,   -0.1,   -0.1,   -0.1,   -0.1,    0.1,    0.0,   -0.1,    0.1,    0.4,    0.1,    0.0,    0.2,   -0.4,    0.3,   -0.1,   -0.1,    0.0,   -0.2,    0.2,    0.1,   -0.2,  999.0,   -0.3,  999.0,  999.0,  999.0,  999.0,  999.0,  999.0
2013/04/28 12:10,  999.0,    0.1,    0.2,   -0.1,   -0.2,    0.2,   -0.1,    0.3,    0.5,   -0.1,    0.2,    0.4,    0.3,    1.3,    1.5,    0.8,    0.3,    0.2,    0.6,    0.6,    0.2,    0.8,  999.0,    1.1,    2.0,  999.0,    1.7,    0.4,    0.5,    0.5,   -0.2,   -0.2,    0.1,    0.2,   -0.0,   -0.0,    0.1,   -0.1,    0.1,   -0.0,   -0.3,   -0.1,    0.1,   -0.1,   -0.1,    0.3,    0.0,    0.1,    0.2,   -0.4,   -0.1,    0.1,    0.1,    0.2,    0.3,   -0.0,   -0.2,    0.2,    0.3,    0.1,  999.0,   -0.0,   -0.0,   -0.3,  999.0,    0.1,    0.1,  999.0,   -0.3,  999.0,   -0.1,   -0.0,   -0.2,   -0.3,  999.0,  999.0,  999.0,  999.0,  999.0,  999.0
2013/04/28 12:20,  999.0,   -0.0,   -0.1,   -0.3,    0.1,    0.5,    0.8,    0.8,    0.0,    0.6,    2.8,    1.9,    1.9,    1.4,    1.2,    0.6,    0.7,    1.1,    1.1,    1.0,   -0.8,   -0.6,    1.3,  999.0,  999.0,    4.1,    1.3,   -0.3,    0.2,    0.0,    0.0,   -0.2,   -0.1,   -0.5,    0.0,   -0.1,    0.3,   -0.0,  999.0,   -0.1,   -0.5,   -0.8,   -0.1,    0.1,   -0.0,    0.1,    0.1,   -0.0,    0.0,    0.2,   -0.1,   -0.2,   -0.0,    0.1,   -0.2,    0.0,   -0.2,   -0.1,   -0.2,  999.0,    0.0,   -0.3,    0.1,    0.1,   -0.4,    0.1,    0.2,   -0.0,  999.0,  999.0,  999.0,   -0.0,    0.1,    0.0,  999.0,  999.0,  999.0,  999.0,  999.0,  999.0
2013/04/28 12:30,  999.0,  999.0,   -0.2,   -0.1,   -0.3,    0.6,    0.1,    0.3,    0.5,   -2.5,   -3.4,   -3.4,   -4.1,   -2.7,    0.1,   -1.6,   -0.1,    0.7,    0.4,    1.1,    0.7,  999.0,  999.0,   -0.8,   -0.2,   -1.3,   -0.1,   -0.0,   -0.1,   -0.0,   -0.1,   -0.1,   -0.0,   -0.1,    0.1,    0.3,    0.1,  999.0,   -0.1,  999.0,   -0.4,  999.0,   -0.7,   -0.3,   -0.0,  999.0,    0.2,   -0.1,  999.0,  999.0,   -0.2,   -0.1,    0.1,   -0.0,   -0.2,    0.2,   -0.1,    0.4,    0.1,    0.0,   -0.2,    0.4,    0.0,    0.2,    0.0,  999.0,    0.5,  999.0,    0.1,  999.0,  999.0,  999.0,  999.0,  999.0,  999.0,  999.0,  999.0,  999.0,  999.0,  999.0
2013/04/28 12:40,  999.0,   -0.0,   -0.2,    0.1,    0.3,    0.5,    0.5,    0.4,    0.3,    0.2,   -0.2,    0.3,    0.4,    0.7,    0.8,    0.5,    0.7,    0.6,    0.8,    1.2,    2.7,  999.0,  999.0,  999.0,    0.7,    2.5,    0.4,   -0.2,    0.1,   -0.2,   -0.3,   -0.0,   -0.0,   -0.0,    0.1,   -0.1,   -0.4,    0.1,    0.4,  999.0,   -0.2,   -0.6,    0.3,    0.2,   -0.0,    0.1,   -0.0,   -0.0,   -0.0,    0.2,    0.0,   -0.1,   -0.3,   -0.1,    0.0,   -0.1,    0.2,    0.0,   -0.2,   -0.1,    0.1,    0.3,    0.0,   -0.3,   -0.2,   -0.1,   -0.0,   -0.2,   -0.4,  999.0,   -0.2,  999.0,  999.0,  999.0,  999.0,  999.0,  999.0,  999.0,  999.0,  999.0
2013/04/28 12:50,  999.0,   -0.1,    0.6,    0.4,    0.3,   -0.2,   -0.3,   -0.3,    0.2,    0.5,    1.5,    1.2,    0.2,    0.1,    0.7,    1.5,    1.4,    1.1,    0.7,    3.8,    0.7,   -0.1,  999.0,    1.4,   -1.8,  999.0,   -0.1,    0.1,    0.3,   -0.2,    0.2,   -0.1,    0.2,  999.0,    0.2,    0.3,   -0.2,   -0.1,    0.0,    0.3,   -0.1,   -0.1,    0.1,    0.3,    0.2,    0.1,    0.0,    0.3,    0.1,    0.2,    0.2,    0.2,    0.0,   -0.2,   -0.2,   -0.2,    0.1,   -0.1,   -0.1,   -0.1,   -0.1,    0.1,    0.1,    0.1,   -0.0,   -0.1,   -0.1,   -0.1,   -0.1,  999.0,    0.6,    0.2,  999.0,  999.0,  999.0,  999.0,  999.0,  999.0,  999.0,  999.0
2013/04/28 13:00,  999.0,    0.0,    0.1,    0.2,    0.2,    0.3,    0.2,    0.0,   -0.0,   -0.3,   -0.9,    0.3,    0.6,    1.3,    0.1,    0.1,    0.7,   -0.4,  999.0,    1.8,  999.0,    0.7,  999.0,    3.3,    2.5,    0.5,   -0.1,   -0.2,    0.1,    0.1,   -0.1,    0.0,   -0.2,   -0.1,   -0.4,   -0.3,   -0.0,   -0.1,    0.6,    0.2,   -0.4,   -0.3,    0.0,    0.0,   -0.1,   -0.0,    0.0,   -0.1,   -0.3,   -0.3,   -0.2,   -0.2,   -0.1,   -0.0,   -0.1,   -0.2,   -0.1,   -0.0,    0.0,   -0.2,    0.2,   -0.1,   -0.0,    0.1,   -0.0,    0.0,   -0.2,   -0.4,    0.0,  999.0,    0.6,  999.0,  999.0,  999.0,  999.0,  999.0,  999.0,  999.0,  999.0,  999.0
2013/04/28 13:10,  999.0,   -0.0,    0.6,    0.2,   -0.1,    0.1,    0.0,    0.1,    0.3,    0.6,    1.0,    0.6,   -0.5,   -0.1,    0.3,    0.8,    1.3,    1.6,    1.2,    1.7,  999.0,  999.0,  999.0,  999.0,   -1.3,    0.2,   -0.3,   -0.1,   -0.0,   -0.1,   -0.2,   -0.0,    0.2,   -0.4,   -0.1,    0.3,   -0.1,    0.3,   -0.0,   -0.2,   -0.1,   -0.2,   -0.3,   -0.0,    0.1,   -0.1,   -0.1,    0.2,    0.2,   -0.0,    0.2,   -0.1,   -0.0,   -0.0,   -0.0,    0.0,   -0.1,    0.0,   -0.0,   -0.1,   -0.1,    0.1,   -0.2,    0.1,    0.2,   -0.4,   -0.0,    0.1,    0.2,  999.0,    0.2,   -0.0,   -0.0,    0.1,  999.0,  999.0,  999.0,  999.0,  999.0,  999.0
2013/04/28 13:20,  999.0,    0.1,    0.2,    0.2,    0.1,    0.1,    0.3,    0.3,    0.6,    0.6,    0.4,    0.5,    0.5,    0.8,    1.1,    1.5,    1.3,    1.0,    1.6,    1.6,    0.8,    0.4,  999.0,   -2.0,   -0.0,   -0.2,   -0.1,    0.1,    0.1,    0.0,   -0.1,   -0.0,    0.3,    0.1,   -0.2,   -0.1,  999.0,    0.3,    0.2,    0.1,   -0.2,   -0.0,    0.1,    0.2,    0.2,   -0.1,    0.0,   -0.0,   -0.0,    0.0,    0.2,    0.1,   -0.2,    0.1,   -0.0,   -0.2,   -0.0,    0.1,   -0.0,    0.1,   -0.1,    0.1,    0.1,   -0.1,   -0.0,   -0.1,    0.1,  999.0,    0.0,  999.0,  999.0,  999.0,  999.0,   -0.2,  999.0,  999.0,  999.0,  999.0,  999.0,  999.0
2013/04/28 13:30,  999.0,  999.0,   -0.1,   -0.0,    0.1,    0.2,    0.1,   -0.1,   -0.1,    0.0,   -0.0,   -0.0,   -0.0,    0.1,    0.2,    0.2,    0.3,    0.4,    0.1,    0.3,    0.7,    1.3,    1.7,    0.2,   -0.4,   -0.2,    0.2,   -0.1,   -0.0,   -0.1,    0.2,    0.0,   -0.1,    0.1,    0.3,  999.0,   -0.0,    0.2,    0.1,    0.0,   -0.5,   -0.4,    0.2,   -0.1,   -0.0,   -0.1,   -0.1,   -0.1,   -0.0,   -0.2,   -0.1,    0.0,    0.1,   -0.1,    0.1,   -0.1,   -0.1,    0.1,    0.0,    0.2,    0.1,    0.2,   -0.2,  999.0,    0.0,   -0.0,  999.0,    0.3,   -0.0,  999.0,  999.0,   -0.4,  999.0,  999.0,  999.0,  999.0,  999.0,  999.0,  999.0,  999.0
2013/04/28 13:40,  999.0,  999.0,    0.1,    0.1,  999.0,   -0.4,  999.0,   -0.1,    0.1,    0.1,    0.3,    0.1,    0.1,    0.1,    0.1,   -0.0,   -0.0,    0.1,    0.3,    0.1,    0.1,   -0.4,   -0.0,   -0.3,   -0.1,   -0.1,    0.1,    0.1,    0.1,    0.1,    0.0,    0.3,    0.4,    0.2,   -0.1,    0.2,   -0.1,  999.0,   -0.1,    0.0,   -0.2,   -0.3,   -0.2,   -0.0,   -0.1,   -0.1,   -0.0,   -0.0,    0.1,   -0.1,    0.2,   -0.1,   -0.1,   -0.0,   -0.1,    0.1,    0.0,    0.0,    0.2,    0.2,   -0.1,   -0.2,   -0.1,    0.1,   -0.0,   -0.0,  999.0,  999.0,    0.2,  999.0,  999.0,   -0.3,  999.0,   -0.1,  999.0,  999.0,   -0.4,  999.0,  999.0,  999.0
2013/04/28 13:50,  999.0,  999.0,    0.1,    0.2,    0.0,   -0.3,    0.0,   -0.1,   -0.1,    0.1,   -0.0,   -0.2,    0.2,    0.2,    0.2,    0.4,    0.3,    0.3,    0.6,    0.9,   -0.1,    0.1,    1.5,    0.9,    0.9,    0.6,    0.3,    0.1,    0.0,    0.1,   -0.0,   -0.0,   -0.0,    0.1,   -0.0,   -0.1,   -0.2,    0.0,  999.0,    0.0,   -0.2,    0.1,   -0.1,   -0.0,   -0.1,   -0.0,    0.1,    0.2,   -0.0,   -0.1,    0.1,    0.1,   -0.0,    0.2,    0.3,   -0.1,    0.1,    0.0,   -0.6,   -0.0,    0.4,   -0.1,    0.1,   -0.2,    0.1,  999.0,    0.0,    0.1,   -0.3,  999.0,  999.0,  999.0,  999.0,  999.0,  999.0,  999.0,  999.0,  999.0,  999.0,  999.0
2013/04/28 14:00,  999.0,  999.0,    0.0,   -0.1,   -0.0,    0.1,   -0.0,    0.2,    0.0,   -0.0,    0.2,    0.0,   -0.1,    0.3,    0.3,    0.7,    0.6,    0.4,    1.1,    0.8,    0.3,    0.3,    0.5,    0.3,    0.1,    0.2,   -0.2,    0.1,    0.2,   -0.0,    0.1,   -0.0,   -0.2,  999.0,   -0.3,    0.0,   -0.4,  999.0,    0.2,    0.2,   -0.3,   -0.0,    0.1,   -0.1,   -0.1,   -0.3,   -0.1,    0.1,    0.1,    0.0,    0.0,   -0.1,   -0.0,   -0.2,   -0.0,    0.1,    0.0,    0.3,   -0.0,   -0.1,   -0.1,    0.0,   -0.2,    0.1,   -0.1,   -0.2,    0.3,   -0.1,    0.4,    0.1,  999.0,    0.2,    0.2,  999.0,  999.0,  999.0,  999.0,  999.0,  999.0,  999.0
2013/04/28 14:10,  999.0,  999.0,    0.0,    0.0,    0.0,    0.1,    0.1,    0.0,    0.1,    0.2,    0.5,    0.4,    0.3,    0.9,    0.6,    0.5,    0.2,    0.3,   -0.2,    0.5,   -0.5,   -1.0,   -1.0,   -0.0,   -0.1,   -0.0,   -0.1,    0.1,   -0.1,    0.0,   -0.2,   -0.1,   -0.0,    0.1,    0.2,    0.0,   -0.3,  999.0,    0.1,   -0.0,   -0.2,  999.0,    0.1,   -0.0,   -0.0,   -0.2,   -0.0,   -0.1,   -0.2,    0.1,    0.2,    0.1,   -0.0,   -0.1,   -0.0,    0.1,    0.0,   -0.1,    0.0,    0.1,    0.0,   -0.1,   -0.1,    0.2,    0.4,   -0.2,    0.2,    0.0,    0.3,  999.0,    0.4,   -0.0,    0.2,   -0.5,   -0.3,  999.0,  999.0,  999.0,  999.0,  999.0
2013/04/28 14:20,  999.0,  999.0,   -0.1,   -0.1,   -0.1,   -0.0,   -0.1,    0.1,   -0.0,    0.0,   -0.0,    0.1,    0.2,    0.0,   -0.1,    0.2,   -0.4,    0.1,    0.0,    0.2,    0.2,    0.1,   -0.3,    0.0,    0.1,    0.3,   -0.0,    0.1,   -0.1,   -0.0,    0.0,    0.0,   -0.1,   -0.1,   -0.1,   -0.1,   -0.3,  999.0,  999.0,   -0.2,   -0.1,   -0.5,    0.0,    0.1,    0.0,   -0.1,   -0.0,    0.1,    0.1,    0.2,   -0.3,   -0.1,   -0.1,   -0.1,   -0.2,   -0.2,    0.2,   -0.1,   -0.1,   -0.1,   -0.1,   -0.0,    0.1,   -0.3,    0.0,   -0.1,   -0.4,    0.1,    0.4,  999.0,    0.5,  999.0,   -0.1,    0.4,    0.1,  999.0,  999.0,  999.0,  999.0,  999.0
2013/04/28 14:30,  999.0,  999.0,   -0.0,    0.3,    0.1,   -0.1,    0.2,    0.3,    0.1,    0.2,    0.3,    0.6,    0.2,    0.3,    0.2,   -0.1,    0.0,    0.3,    0.2,    0.3,    0.0,   -0.0,   -0.0,   -0.7,   -0.3,    0.2,   -0.0,   -0.2,    0.2,   -0.1,   -0.1,   -0.1,   -0.1,   -0.2,    0.3,    0.2,    0.1,    0.3,   -0.1,   -0.3,   -0.3,   -0.3,    0.1,    0.1,   -0.0,   -0.2,    0.2,   -0.1,    0.1,   -0.0,    0.0,   -0.2,    0.3,    0.3,    0.3,    0.1,   -0.0,    0.0,   -0.1,   -0.0,    0.1,    0.1,   -0.0,   -0.3,    0.2,    0.0,    0.1,  999.0,  999.0,  999.0,    0.4,    0.2,   -0.3,    0.1,  999.0,  999.0,  999.0,  999.0,  999.0,  999.0
2013/04/28 14:40,  999.0,  999.0,   -0.0,    0.1,    0.3,    0.3,    0.1,    0.0,    0.1,    0.4,    0.3,    0.1,    0.1,    0.2,    0.1,    0.2,    0.3,    0.3,    0.2,    0.2,   -0.2,   -0.2,   -0.6,   -0.4,   -0.2,   -0.1,   -0.1,   -0.1,    0.1,    0.0,   -0.0,    0.2,    0.2,   -0.2,   -0.1,    0.2,   -0.0,    0.3,    0.1,   -0.2,   -0.3,  999.0,   -0.1,   -0.0,   -0.3,    0.0,    0.2,    0.1,    0.0,   -0.1,    0.0,   -0.0,    0.1,   -0.1,    0.1,    0.1,    0.0,    0.0,    0.0,   -0.4,   -0.1,   -0.0,   -0.1,    0.0,   -0.1,    0.0,   -0.2,    0.1,   -0.1,    0.3,  999.0,   -0.3,   -0.1,    0.2,   -0.4,  999.0,  999.0,  999.0,  999.0,  999.0
2013/04/28 14:50,  999.0,  999.0,   -0.1,    0.1,   -0.1,   -0.1,   -0.1,   -0.2,    6.8,    6.8,    6.5,    8.3,    8.1,    3.6,    3.7,  999.0,    1.1,    0.8,    0.0,   -0.1,   -0.1,    0.0,    0.3,   -0.0,   -0.0,   -0.0,    0.1,   -0.0,   -0.0,    0.1,    0.1,   -0.1,   -0.1,  999.0,   -0.2,    0.2,    0.1,  999.0,   -0.3,    0.0,   -0.5,   -0.3,    0.0,   -0.1,   -0.2,   -0.0,   -0.3,   -0.1,   -0.1,    0.1,    0.1,   -0.0,   -0.2,    0.3,   -0.2,    0.1,    0.1,    0.1,    0.1,   -0.0,    0.2,   -0.2,   -0.2,   -0.2,  999.0,  999.0,   -0.1,    0.2,  999.0,  999.0,  999.0,  999.0,  999.0,    0.3,  999.0,   -0.2,  999.0,  999.0,  999.0,  999.0
2013/04/28 15:00,  999.0,   -0.1,    0.1,    0.0,   -0.1,    0.2,    0.4,   -0.1,    0.2,    0.1,    0.0,   -0.6,   -0.9,   -0.5,   -0.1,    0.1,   -0.2,    0.3,    0.6,    1.2,    0.6,   -0.1,    0.7,    0.9,    0.5,    0.0,    0.0,    0.1,   -0.0,   -0.0,    0.1,    0.0,    0.3,    0.3,   -0.4,    0.3,  999.0,  999.0,   -0.1,    0.1,   -0.2,   -0.3,   -0.3,    0.0,    0.0,    0.0,    0.2,    0.3,    0.1,   -0.0,   -0.2,    0.1,    0.1,    0.1,   -0.1,   -0.0,   -0.0,    0.0,   -0.1,   -0.1,   -0.0,   -0.1,    0.2,   -0.0,    0.1,   -0.0,    0.1,  999.0,    0.1,   -0.2,    0.1,  999.0,   -0.4,   -0.0,   -0.3,  999.0,  999.0,  999.0,  999.0,  999.0
2013/04/28 15:10,  999.0,    0.0,    0.0,   -0.1,    0.1,   -0.1,    0.1,   -0.0,    0.1,    0.1,    5.2,    3.8,    1.6,    3.9,    5.6,    2.1,   -0.1,   -0.4,   -0.2,    0.4,    0.4,    0.6,    0.7,   -0.2,   -0.0,    0.0,   -0.2,    0.1,    0.1,    0.1,   -0.1,   -0.0,    0.0,    0.2,   -0.0,    0.1,   -0.0,    0.1,   -0.0,   -0.1,   -0.4,   -0.5,   -0.0,   -0.1,   -0.1,   -0.2,  999.0,   -0.0,    0.1,    0.1,   -0.0,   -0.0,    0.0,    0.0,   -0.2,    0.2,    0.2,    0.0,   -0.0,    0.0,    0.0,    0.1,    0.0,   -0.0,   -0.2,   -0.0,   -0.1,   -0.2,   -0.3,    0.1,  999.0,   -0.3,  999.0,  999.0,  999.0,  999.0,  999.0,  999.0,  999.0,  999.0
2013/04/28 15:20,  999.0,  999.0,    0.0,    0.1,    0.2,    0.3,    0.3,    0.2,    0.4,    0.4,   -0.0,    2.2,    1.9,    1.6,    2.2,   -0.0,   -0.2,   -0.0,    0.2,    0.2,    0.0,   -0.1,   -0.3,   -0.0,   -0.1,   -0.0,   -0.0,    0.2,    0.1,   -0.1,    0.0,   -0.1,    0.1,    0.0,   -0.2,   -0.2,    0.2,   -0.3,    0.0,    0.1,   -0.0,   -0.2,   -0.1,    0.1,   -0.0,    0.0,   -0.1,    0.1,   -0.0,    0.0,    0.1,    0.3,    0.1,   -0.0,   -0.1,   -0.1,    0.0,   -0.0,   -0.0,   -0.1,    0.1,   -0.1,    0.1,    0.1,    0.2,   -0.0,   -0.0,   -0.0,   -0.3,   -0.1,  999.0,   -0.0,  999.0,  999.0,  999.0,  999.0,  999.0,  999.0,  999.0,  999.0
2013/04/28 15:30,  999.0,   -0.1,    0.0,   -0.0,   -0.1,   -0.0,    0.0,    0.1,    0.2,    0.4,    0.2,   -0.1,   -0.1,    0.1,    0.2,   -0.0,   -0.2,   -0.0,   -0.1,   -0.2,   -0.0,   -0.1,   -0.3,    0.1,   -0.3,    0.1,   -0.0,   -0.1,   -0.1,   -0.1,   -0.1,   -0.1,   -0.1,    0.0,   -0.1,   -0.1,    0.0,   -0.2,   -0.0,    0.1,   -0.2,   -0.2,    0.0,   -0.0,   -0.1,   -0.1,   -0.0,    0.1,   -0.1,   -0.1,   -0.1,   -0.2,    0.1,   -0.0,   -0.2,    0.1,   -0.3,    0.1,    0.2,    0.1,   -0.2,    0.1,    0.2,    0.1,    0.0,   -0.0,    0.1,    0.2,  999.0,   -0.2,    0.3,  999.0,  999.0,   -0.5,    0.2,  999.0,  999.0,  999.0,  999.0,  999.0
2013/04/28 15:40,  999.0,  999.0,   -0.0,    0.0,    0.1,    0.1,    0.1,    0.0,    0.1,   -0.1,    0.0,    0.2,    0.0,   -0.0,  999.0,    0.0,   -0.2,   -0.3,   -0.0,   -0.1,   -0.0,   -0.1,   -0.1,   -0.0,    0.0,   -0.1,   -0.0,   -0.2,   -0.1,   -0.1,    0.1,    0.1,   -0.2,   -0.2,   -0.0,   -0.0,    0.0,    0.0,    0.1,   -0.0,   -0.2,   -0.0,    0.0,    0.0,    0.0,   -0.1,    0.1,   -0.1,   -0.0,   -0.0,    0.2,    0.1,   -0.0,   -0.0,    0.2,    0.1,   -0.3,    0.2,   -0.1,   -0.1,    0.1,    0.3,    0.2,    0.2,    0.3,    0.1,   -0.1,   -0.0,   -0.1,    0.3,   -0.0,  999.0,    0.2,   -0.2,   -0.0,  999.0,  999.0,  999.0,  999.0,  999.0
2013/04/28 15:50,  999.0,   -0.1,    0.0,    0.1,   -0.0,   -0.2,   -0.2,   -0.0,    0.1,    0.1,    0.0,    0.2,    0.1,    0.2,  999.0,    0.2,    0.1,    0.2,  999.0,    0.3,    0.3,    0.3,    0.0,   -0.0,   -0.1,    0.0,   -0.1,   -0.0,   -0.2,   -0.1,   -0.0,    0.1,    0.0,    0.1,   -0.1,   -0.1,    0.0,   -0.3,    0.1,    0.1,   -0.1,   -0.1,   -0.0,    0.1,    0.2,   -0.1,   -0.1,    0.1,    0.1,    0.0,    0.1,    0.2,    0.1,   -0.2,   -0.1,   -0.0,    0.2,    0.2,   -0.2,    0.1,    0.1,   -0.1,    0.2,   -0.0,   -0.1,    0.1,    0.1,  999.0,    0.1,    0.1,  999.0,   -0.0,    0.0,  999.0,  999.0,  999.0,  999.0,  999.0,  999.0,  999.0
2013/04/28 16:00,  999.0,  999.0,    0.2,    0.0,    0.2,    0.1,    0.0,    0.4,    0.3,    0.4,    2.5,    0.1,   -0.2,    0.1,    0.1,    3.0,    0.4,    0.5,    0.4,    0.3,    0.3,    0.2,    0.1,   -0.0,    0.1,   -0.1,   -0.1,   -0.0,    0.3,   -0.0,    0.1,    0.0,   -0.2,   -0.0,   -0.2,   -0.1,   -0.1,    0.0,   -0.1,   -0.3,   -0.2,    0.1,    0.1,   -0.0,   -0.1,   -0.1,   -0.1,    0.0,    0.1,    0.2,   -0.1,   -0.1,    0.1,    0.0,   -0.0,   -0.3,   -0.1,   -0.1,    0.1,    0.1,    0.1,    0.4,   -0.1,    0.0,    0.1,    0.1,    0.1,   -0.2,  999.0,    0.3,   -0.4,   -0.0,  999.0,  999.0,  999.0,  999.0,  999.0,  999.0,  999.0,  999.0
2013/04/28 16:10,  999.0,   -0.1,    0.3,    0.3,    0.2,    0.2,   -0.3,   -0.1,    0.3,    0.5,   -0.2,    0.8,    0.5,    0.4,    0.5,    4.4,    4.0,    0.4,    0.3,    0.2,    0.1,   -0.0,   -0.0,    0.1,   -0.1,    0.1,    0.0,    0.2,   -0.1,   -0.0,    0.0,   -0.2,    0.0,    0.0,   -0.0,   -0.1,   -0.1,   -0.2,    0.2,   -0.0,   -0.3,   -0.2,   -0.0,    0.0,    0.1,   -0.0,   -0.0,   -0.0,   -0.0,   -0.1,   -0.1,    0.1,    0.0,    0.0,    0.2,   -0.2,    0.1,    0.0,    0.1,   -0.1,    0.1,   -0.3,    0.1,   -0.1,   -0.1,   -0.0,   -0.0,    0.2,  999.0,    0.2,  999.0,  999.0,    0.1,   -0.0,  999.0,  999.0,  999.0,  999.0,  999.0,  999.0
2013/04/28 16:20,  999.0,    0.1,    0.2,    0.2,    0.3,    0.3,    0.3,    0.2,    0.2,   -1.9,   -1.2,    0.8,   -0.2,    0.2,    0.2,    0.5,    0.5,    0.4,    0.3,    0.6,    0.6,    0.6,    0.1,   -0.1,   -0.1,   -0.2,   -0.1,   -0.0,   -0.0,    0.0,   -0.1,   -0.1,    0.1,    0.2,   -0.2,    0.1,    0.1,    0.2,    0.3,    0.1,   -0.1,    0.0,    0.2,    0.0,    0.0,    0.1,    0.1,    0.0,   -0.0,    0.0,   -0.3,   -0.2,   -0.0,   -0.1,    0.1,    0.2,    0.1,   -0.1,    0.2,    0.5,    0.1,    0.2,    0.2,   -0.0,    0.1,    0.1,  999.0,    0.1,  999.0,   -0.1,  999.0,   -0.2,  999.0,  999.0,  999.0,  999.0,  999.0,  999.0,  999.0,  999.0
2013/04/28 16:30,  999.0,  999.0,    0.3,    0.6,    0.2,    0.2,    0.3,    0.6,    1.1,    1.1,    1.3,    1.7,    1.5,    1.1,    1.1,    0.8,    0.8,    0.7,    0.4,    0.4,    0.2,    0.1,   -0.1,    0.1,    0.0,   -0.0,   -0.0,   -0.1,    0.1,    0.1,   -0.1,    0.1,    0.2,    0.3,   -0.2,   -0.4,   -0.4,  999.0,   -0.1,   -0.0,   -0.3,   -0.2,   -0.2,   -0.0,    0.1,    0.1,    0.0,    0.1,    0.1,    0.0,   -0.0,    0.0,   -0.2,   -0.1,   -0.0,    0.0,   -0.1,   -0.1,    0.1,    0.1,    0.0,   -0.2,   -0.2,   -0.1,   -0.3,   -0.3,    0.1,    0.3,   -0.3,  999.0,  999.0,  999.0,  999.0,  999.0,  999.0,  999.0,  999.0,  999.0,  999.0,  999.0
2013/04/28 16:40,  999.0,   -0.0,   -0.1,    0.0,    0.3,   -0.2,    0.0,    0.2,   -0.1,    0.7,    0.8,    1.3,    0.5,    0.6,    0.7,    0.4,    0.5,    0.8,    0.3,    0.1,    0.1,    0.1,   -0.0,    0.1,    0.0,    0.0,   -0.1,   -0.1,    0.0,   -0.0,    0.2,   -0.1,    0.1,   -0.2,  999.0,  999.0,    0.2,   -0.3,   -0.4,   -0.1,   -0.1,   -0.1,    0.0,    0.0,   -0.0,   -0.1,   -0.0,    0.0,   -0.0,    0.1,    0.1,   -0.1,    0.1,   -0.2,   -0.0,   -0.1,    0.1,    0.1,   -0.0,   -0.2,    0.0,    0.1,    0.0,   -0.1,    0.5,   -0.0,   -0.1,   -0.1,    0.1,  999.0,  999.0,  999.0,  999.0,  999.0,  999.0,  999.0,  999.0,  999.0,  999.0,  999.0
2013/04/28 16:50,  999.0,  999.0,   -0.2,   -0.2,    0.1,    0.3,    0.5,    0.0,    0.3,    0.8,    0.5,    0.5,    0.5,    0.3,    0.2,    0.3,    0.7,    0.6,    0.2,    0.2,    0.0,    0.2,    0.2,   -0.0,   -0.0,    0.1,    0.2,    0.0,    0.1,    0.1,    0.1,   -0.1,    0.1,   -0.1,    0.0,    0.3,   -0.0,  999.0,    0.1,    0.0,   -0.2,   -0.1,    0.1,    0.2,    0.1,    0.1,   -0.0,    0.0,    0.0,   -0.1,   -0.0,    0.1,   -0.0,   -0.1,    0.0,   -0.3,    0.1,    0.2,    0.1,    0.0,    0.1,    0.0,    0.1,    0.1,   -0.2,   -0.2,    0.0,   -0.4,  999.0,   -0.3,  999.0,  999.0,  999.0,  999.0,  999.0,  999.0,  999.0,  999.0,  999.0,  999.0
2013/04/28 17:00,  999.0,  999.0,   -0.2,   -0.3,   -0.0,    0.0,   -0.2,   -0.0,    0.3,    0.5,    0.2,    0.8,    0.7,    0.7,    0.5,    0.7,    0.4,    0.5,    0.2,   -0.1,    0.1,    0.4,    0.4,    0.2,    0.1,    0.0,   -0.1,   -0.0,    0.1,    0.0,   -0.0,   -0.1,    0.0,    0.1,    0.2,   -0.0,  999.0,  999.0,   -0.1,    0.0,   -0.2,   -0.2,    0.0,   -0.1,   -0.0,    0.1,    0.1,   -0.2,   -0.2,    0.1,    0.2,   -0.0,   -0.2,   -0.1,    0.1,   -0.1,   -0.1,    0.0,    0.0,   -0.0,   -0.0,   -0.1,    0.1,   -0.0,   -0.2,    0.2,    0.2,    0.4,  999.0,    0.1,  999.0,  999.0,  999.0,    0.2,  999.0,  999.0,  999.0,  999.0,  999.0,  999.0
2013/04/28 17:10,  999.0,    0.0,    0.1,    0.3,    0.4,    0.4,    0.8,    0.4,    0.1,   -0.0,    0.7,    1.2,    1.4,    1.3,    0.8,    1.1,    0.8,    0.7,    0.5,    0.1,    0.5,    0.2,    0.1,   -0.0,    0.0,   -0.0,   -0.0,   -0.1,    0.2,    0.0,   -0.0,   -0.0,   -0.0,   -0.1,    0.3,    0.3,    0.1,   -0.1,   -0.1,    0.0,   -0.3,   -0.2,   -0.1,    0.0,    0.1,   -0.1,    0.1,    0.2,    0.1,    0.1,   -0.1,   -0.1,    0.2,    0.1,    0.0,   -0.1,   -0.1,    0.1,    0.0,   -0.2,   -0.1,    0.1,   -0.1,   -0.1,   -0.2,   -0.1,   -0.0,   -0.2,   -0.1,  999.0,  999.0,  999.0,   -0.0,  999.0,  999.0,  999.0,  999.0,  999.0,  999.0,  999.0
2013/04/28 17:20,  999.0,  999.0,   -0.1,    0.0,   -0.0,   -0.6,    0.1,    0.1,    0.3,    0.1,    0.2,    0.2,    0.1,    0.6,    0.6,    0.6,    0.5,    0.3,    0.3,    0.3,    0.0,    0.1,    0.0,    0.2,   -0.0,   -0.0,   -0.2,    0.1,    0.0,   -0.1,   -0.0,   -0.1,   -0.1,    0.2,    0.3,   -0.1,   -0.3,   -0.1,    0.3,    0.2,    0.1,   -0.1,   -0.0,    0.0,    0.1,    0.1,    0.0,    0.1,    0.0,    0.0,   -0.2,   -0.0,    0.1,    0.2,    0.2,   -0.1,   -0.2,   -0.0,   -0.1,    0.0,    0.2,   -0.1,    0.0,   -0.1,    0.0,   -0.3,   -0.1,    0.1,   -0.0,   -0.2,  999.0,  999.0,  999.0,  999.0,  999.0,  999.0,  999.0,  999.0,  999.0,  999.0
2013/04/28 17:30,  999.0,    0.0,   -0.1,    0.2,    0.0,    0.2,    0.0,    0.0,    0.1,    0.0,   -0.0,   -0.2,   -0.0,    0.4,    0.2,    0.2,    0.0,    0.4,    0.4,    0.0,    0.0,    0.0,    0.1,    0.1,    0.0,   -0.1,    0.0,   -0.0,   -0.1,    0.0,    0.0,    0.1,    0.0,    0.1,   -0.1,    0.0,  999.0,    0.3,    0.2,   -0.0,   -0.3,   -0.1,    0.2,    0.1,    0.2,   -0.0,    0.1,   -0.1,   -0.0,   -0.2,   -0.0,    0.1,   -0.1,   -0.1,   -0.2,   -0.0,   -0.0,    0.0,   -0.2,   -0.0,    0.3,    0.0,    0.1,    0.1,    0.1,  999.0,    0.3,    0.3,    0.0,  999.0,  999.0,  999.0,  999.0,  999.0,  999.0,  999.0,  999.0,  999.0,  999.0,  999.0
2013/04/28 17:40,  999.0,   -0.1,    0.1,    0.0,    0.0,   -0.0,    0.1,    0.2,    0.1,    0.0,    0.1,    0.3,    0.3,    0.8,    1.0,    0.9,    0.8,    0.7,    0.2,    0.2,    0.1,    0.2,   -0.1,    0.1,    0.2,    0.2,    0.1,   -0.0,    0.1,    0.2,    0.0,   -0.1,    0.1,    0.1,   -0.2,   -0.2,  999.0,    0.0,   -0.1,   -0.2,   -0.4,   -0.0,    0.3,    0.0,   -0.2,   -0.1,   -0.2,    0.0,   -0.1,   -0.4,   -0.1,    0.0,   -0.1,   -0.1,    0.1,    0.1,   -0.1,    0.1,   -0.0,   -0.3,    0.0,   -0.3,   -0.1,    0.1,   -0.2,    0.1,   -0.1,   -0.1,   -0.0,  999.0,  999.0,  999.0,  999.0,  999.0,  999.0,  999.0,  999.0,  999.0,  999.0,  999.0
2013/04/28 17:50,  999.0,   -0.1,    0.4,    0.3,    0.1,    0.1,  999.0,    0.0,    0.0,   -0.1,   -0.2,   -0.7,   -0.6,  999.0,   -0.2,    1.3,    0.6,    0.5,    0.4,    0.2,    0.2,    0.2,   -0.2,   -0.3,    0.2,    0.0,    0.1,   -0.2,   -0.1,   -0.4,    0.2,    0.4,    0.1,   -0.3,   -0.1,   -0.3,  999.0,   -0.4,   -0.3,    0.0,   -0.3,   -0.1,    0.5,    0.2,   -0.1,    0.1,   -0.1,   -0.2,   -0.1,    0.1,   -0.2,    0.1,   -0.2,   -0.1,    0.1,   -0.1,    0.1,   -0.1,   -0.2,    0.3,   -0.2,   -0.2,   -0.0,    0.0,    0.2,    0.1,   -0.8,   -0.5,    0.2,  999.0,  999.0,  999.0,  999.0,  999.0,  999.0,  999.0,  999.0,  999.0,  999.0,  999.0
2013/04/28 18:00,  999.0,   -0.1,    0.3,    0.1,    0.1,   -0.0,   -0.0,    0.1,    0.1,    0.1,    0.1,    0.3,    0.4,   -0.3,    0.1,   -0.8,    0.5,    0.2,    0.2,    0.1,   -0.0,    0.1,   -0.2,   -0.2,   -0.1,   -0.5,    0.1,   -0.1,    0.1,    0.2,    0.1,    0.1,   -0.0,   -0.1,    0.0,   -0.3,  999.0,    0.1,    0.4,    0.1,   -0.5,   -0.4,    0.1,    0.1,    0.0,    0.1,   -0.0,    0.2,    0.1,  999.0,   -0.1,    0.1,    0.3,   -0.0,    0.0,    0.0,   -0.0,    0.1,    0.0,    0.1,   -0.0,   -0.1,   -0.2,   -0.1,    0.0,    0.1,   -0.2,  999.0,    0.0,  999.0,  999.0,  999.0,  999.0,  999.0,  999.0,  999.0,  999.0,  999.0,  999.0,  999.0
2013/04/28 18:10,  999.0,    0.3,    0.5,    0.2,    0.0,    0.1,   -0.0,   -0.0,    0.0,    0.2,    0.1,   -0.3,    0.1,    2.6,    3.5,    1.2,    0.8,    0.9,    0.6,    0.0,   -0.5,   -0.9,   -1.0,   -0.3,   -0.3,   -0.1,   -0.2,   -0.2,   -0.2,   -0.1,    0.2,   -0.2,   -0.2,    0.2,   -0.0,    0.2,   -0.2,    0.1,    0.1,    0.1,    0.0,   -0.3,   -0.4,   -0.1,   -0.1,   -0.1,   -0.2,   -0.1,    0.2,    0.1,    0.0,    0.0,   -0.2,   -0.2,    0.0,    0.1,    0.0,   -0.1,   -0.2,   -0.1,    0.1,   -0.0,    0.1,    0.3,    0.2,  999.0,    0.2,  999.0,  999.0,  999.0,  999.0,  999.0,  999.0,  999.0,  999.0,  999.0,  999.0,  999.0,  999.0,  999.0
2013/04/28 18:20,  999.0,    0.2,    0.3,    0.4,   -0.0,   -0.0,   -0.3,   -0.0,   -0.3,    0.1,    0.1,    0.1,  999.0,    1.8,  999.0,  999.0,    0.8,    1.2,    1.1,    0.6,    0.4,    0.3,    0.0,   -0.1,   -0.1,   -0.3,   -0.1,   -0.1,    0.0,    0.2,  999.0,   -0.1,    0.1,    0.1,    0.1,    0.0,  999.0,    0.1,  999.0,  999.0,   -1.0,   -0.2,   -0.1,   -0.1,   -0.0,   -0.1,    0.1,   -0.0,   -0.1,   -0.2,   -0.1,    0.0,    0.0,   -0.1,    0.1,    0.2,    0.0,   -0.0,    0.0,   -0.0,    0.1,    0.2,   -0.1,    0.2,   -0.3,   -0.1,   -0.0,    0.0,    0.1,  999.0,  999.0,  999.0,  999.0,  999.0,  999.0,  999.0,  999.0,  999.0,  999.0,  999.0
2013/04/28 18:30,  999.0,    0.1,    0.1,    0.3,    0.4,    0.0,   -0.2,    0.1,    0.1,    0.0,    0.6,   -0.2,   -0.7,   -1.5,   -0.5,   -0.1,    0.1,   -0.9,   -1.3,   -0.4,   -0.2,   -0.3,   -0.0,   -0.0,    0.0,    0.1,    0.1,   -0.1,   -0.2,   -0.2,  999.0,    0.2,   -0.0,    0.1,    0.1,   -0.0,   -0.1,  999.0,   -0.2,   -0.2,   -0.3,   -0.3,    0.1,   -0.2,   -0.1,    0.0,   -0.1,    0.0,    0.1,    0.2,   -0.1,   -0.1,    0.2,   -0.3,    0.1,    0.1,   -0.0,    0.1,    0.1,   -0.0,    0.1,    0.1,    0.1,   -0.2,   -0.3,    0.1,   -0.9,   -0.2,   -0.2,  999.0,  999.0,  999.0,  999.0,  999.0,  999.0,  999.0,  999.0,  999.0,  999.0,  999.0
2013/04/28 18:40,  999.0,    1.5,    2.0,  999.0,    0.9,  999.0,    0.7,   -0.2,  999.0,   -0.2,  999.0,   -0.3,   -0.6,   -0.1,   -0.1,   -0.6,   -0.5,    0.3,    0.2,   -0.2,    0.4,   -0.1,   -0.3,    0.1,   -0.0,    0.0,    0.1,    0.0,    0.0,   -0.0,   -0.4,    0.2,    0.2,   -0.0,    0.4,    0.1,  999.0,   -0.2,    0.1,   -0.3,   -0.5,    0.1,   -0.0,   -0.1,    0.1,    0.0,    0.1,    0.0,    0.2,    0.1,    0.1,    0.2,    0.2,    0.0,    0.1,    0.2,    0.1,    0.1,    0.0,   -0.0,   -0.0,   -0.1,    0.3,    0.3,    0.0,   -0.5,  999.0,   -0.1,  999.0,  999.0,  999.0,   -0.1,  999.0,  999.0,  999.0,  999.0,  999.0,  999.0,  999.0,  999.0
2013/04/28 18:50,  999.0,  999.0,   -0.1,    0.2,   -0.1,   -0.7,   -0.9,  999.0,  999.0,  999.0,    0.1,    0.3,   -0.0,    0.8,    0.3,    1.1,    0.8,    0.1,   -0.0,   -0.2,   -0.1,    0.2,   -0.1,    0.1,    0.2,    0.0,    0.0,    0.3,   -0.2,    0.0,   -0.0,   -0.1,   -0.1,   -0.1,   -0.3,    0.0,    0.4,  999.0,   -0.2,    0.1,   -0.3,   -0.5,  999.0,   -0.3,    0.3,    0.3,   -0.1,    0.2,    0.1,   -0.2,   -0.3,    0.1,    0.3,   -0.1,   -0.1,    0.1,    0.1,    0.3,    0.1,    0.1,    0.1,    0.0,   -0.2,    0.0,    0.1,   -0.4,   -0.3,   -0.1,   -0.2,    0.2,  999.0,    0.4,  999.0,  999.0,  999.0,  999.0,  999.0,  999.0,  999.0,  999.0
2013/04/28 19:00,  999.0,  999.0,  999.0,  999.0,  999.0,  999.0,  999.0,  999.0,  999.0,  999.0,  999.0,  999.0,  999.0,  999.0,    0.2,   -0.4,   -1.2,   -0.9,   -0.2,    0.1,   -0.1,    0.1,    0.3,    0.3,    0.0,   -0.0,   -0.1,   -0.1,    0.0,    0.1,   -0.0,   -0.2,    0.3,    0.2,    0.1,    0.2,   -0.1,    0.1,    0.2,    0.4,   -0.0,   -0.1,    0.4,    0.2,   -0.1,   -0.2,    0.0,    0.0,    0.1,   -0.1,   -0.0,    0.2,    0.1,   -0.1,    0.1,    0.1,    0.3,    0.0,   -0.2,    0.0,   -0.1,    0.1,    0.4,    0.4,   -0.0,    0.0,    0.1,  999.0,   -0.2,  999.0,  999.0,  999.0,  999.0,  999.0,  999.0,  999.0,  999.0,  999.0,  999.0,  999.0
2013/04/28 19:10,  999.0,  999.0,  999.0,  999.0,  999.0,  999.0,  999.0,  999.0,  999.0,  999.0,  999.0,  999.0,  999.0,  999.0,    1.1,    1.1,    0.9,    1.6,    0.6,   -0.3,    0.2,    0.1,    0.0,    0.0,   -0.2,   -0.2,    0.1,    0.2,   -0.4,   -0.5,   -0.0,    0.1,   -0.1,    0.1,  999.0,  999.0,   -0.1,  999.0,   -0.1,   -0.1,   -0.2,  999.0,   -0.2,   -0.0,    0.1,    0.3,   -0.1,   -0.2,   -0.1,    0.2,    0.0,    0.2,    0.3,   -0.1,    0.0,    0.0,   -0.1,   -0.1,   -0.2,   -0.4,   -0.0,    0.3,    0.2,   -0.0,    0.1,  999.0,  999.0,  999.0,   -0.4,  999.0,  999.0,  999.0,  999.0,  999.0,  999.0,  999.0,  999.0,  999.0,  999.0,  999.0
2013/04/28 19:20,  999.0,  999.0,  999.0,  999.0,  999.0,  999.0,  999.0,  999.0,  999.0,  999.0,  999.0,  999.0,  999.0,  999.0,    1.2,   -0.1,    0.1,    0.0,   -0.1,   -0.1,   -0.1,   -0.3,   -0.1,    0.1,    0.3,    0.1,   -0.1,    0.1,    0.0,    0.0,    0.2,    0.0,    0.1,   -0.1,   -0.5,    0.3,   -0.2,    0.1,   -0.2,  999.0,   -0.2,  999.0,   -0.1,  999.0,  999.0,    0.0,   -0.1,    0.0,   -0.1,   -0.4,   -0.0,   -0.3,   -0.1,    0.0,    0.2,    0.0,    0.2,    0.1,    0.1,   -0.2,    0.0,   -0.2,    0.0,    0.0,    0.1,  999.0,    0.2,   -0.0,  999.0,  999.0,   -0.0,   -0.2,  999.0,  999.0,  999.0,  999.0,  999.0,  999.0,  999.0,  999.0
2013/04/28 19:30,  999.0,  999.0,  999.0,  999.0,  999.0,  999.0,  999.0,  999.0,  999.0,  999.0,  999.0,  999.0,  999.0,  999.0,    0.0,    0.3,    0.8,    0.4,    0.4,    0.4,    0.1,   -0.0,    0.1,   -0.1,    0.1,    0.3,    0.2,   -0.1,    0.1,    0.1,    0.1,    0.2,   -0.3,  999.0,   -0.0,    0.2,   -0.1,   -0.0,   -0.0,   -0.1,   -0.3,   -0.0,   -0.3,    0.1,    0.4,    0.2,    0.1,    0.0,    0.0,    0.1,    0.0,    0.4,    0.2,    0.0,    0.1,   -0.1,   -0.1,    0.1,    0.1,    0.1,    0.1,    0.0,    0.1,    0.2,   -0.2,    0.2,   -0.3,    0.4,   -0.2,  999.0,  999.0,  999.0,    0.0,  999.0,  999.0,  999.0,  999.0,  999.0,  999.0,  999.0
2013/04/28 19:40,  999.0,  999.0,  999.0,  999.0,  999.0,  999.0,  999.0,  999.0,  999.0,  999.0,  999.0,  999.0,  999.0,    0.2,    0.7,   -0.0,    0.3,    0.0,   -0.1,    0.1,   -0.0,   -0.1,    0.1,   -0.4,   -0.2,    0.1,   -0.0,   -0.0,   -0.1,   -0.1,    0.2,    0.3,    0.1,   -0.3,   -0.5,   -0.3,   -0.1,    0.2,  999.0,    0.1,   -0.5,  999.0,   -0.2,   -0.1,   -0.1,    0.1,   -0.3,   -0.2,   -0.2,   -0.3,   -0.1,    0.2,   -0.1,   -0.0,    0.1,    0.0,    0.1,    0.0,    0.2,    0.1,   -0.0,    0.1,   -0.2,    0.3,  999.0,   -0.1,    0.4,   -0.1,    0.2,  999.0,  999.0,   -0.0,    0.1,    0.4,  999.0,  999.0,  999.0,  999.0,  999.0,  999.0
2013/04/28 19:50,  999.0,  999.0,  999.0,  999.0,  999.0,  999.0,  999.0,  999.0,  999.0,  999.0,  999.0,  999.0,  999.0,  999.0,  999.0,    0.7,   -0.3,   -0.2,    0.6,    0.1,    0.2,   -0.5,    0.1,    0.1,   -0.3,    0.0,   -0.0,   -0.1,   -0.3,   -0.0,    0.1,    0.1,   -0.0,    0.0,   -0.2,   -0.2,  999.0,   -0.1,    0.1,   -0.1,   -0.4,   -0.2,    0.0,   -0.2,   -0.3,    0.1,   -0.2,  999.0,   -0.0,    0.2,    0.1,   -0.1,    0.1,   -0.0,    0.3,    0.1,    0.2,   -0.1,    0.1,   -0.2,   -0.1,   -0.1,   -0.4,   -0.2,  999.0,   -0.1,  999.0,   -0.1,    0.2,    0.1,  999.0,    0.1,   -0.1,  999.0,  999.0,  999.0,  999.0,  999.0,  999.0,  999.0
2013/04/28 20:00,  999.0,  999.0,  999.0,  999.0,  999.0,  999.0,  999.0,  999.0,  999.0,  999.0,    0.2,  999.0,   -0.1,    0.1,    0.4,    0.0,   -0.1,  999.0,    0.1,   -0.1,    0.1,    0.2,    0.2,   -0.1,    0.1,    0.0,   -0.1,   -0.0,    0.1,   -0.3,   -0.0,    0.1,   -0.1,    0.1,    0.2,    0.1,   -0.3,    0.0,    0.1,   -0.0,   -0.1,    0.2,   -0.3,   -0.1,    0.2,   -0.2,   -0.0,    0.0,    0.1,   -0.1,    0.2,    0.0,   -0.0,    0.0,   -0.1,   -0.2,   -0.1,   -0.1,   -0.1,   -0.3,   -0.1,   -0.2,   -0.1,    0.2,   -0.1,    0.2,    0.1,    0.1,   -0.0,    0.2,    0.4,   -0.4,    0.0,    0.0,    0.0,  999.0,  999.0,  999.0,  999.0,  999.0
2013/04/28 20:10,  999.0,  999.0,  999.0,  999.0,  999.0,  999.0,  999.0,  999.0,  999.0,  999.0,  999.0,   -0.0,    1.0,    0.4,    0.3,    0.0,   -0.1,    0.2,    0.0,    0.1,    0.1,    0.1,    0.2,    0.1,    0.1,   -0.0,   -0.3,   -0.1,    0.1,    0.0,    0.0,    0.2,    0.0,    0.0,    0.4,    0.3,   -0.1,    0.1,    0.1,    0.1,   -0.2,    0.0,   -0.1,   -0.1,   -0.2,   -0.1,   -0.3,   -0.0,    0.0,   -0.2,    0.0,   -0.1,   -0.1,    0.1,   -0.1,    0.0,    0.1,    0.1,   -0.0,    0.0,    0.1,    0.1,   -0.2,   -0.3,    0.2,    0.2,   -0.0,    0.2,  999.0,   -0.2,    0.1,   -0.1,    0.4,    0.1,   -0.1,  999.0,  999.0,  999.0,  999.0,  999.0
2013/04/28 20:20,  999.0,  999.0,  999.0,  999.0,  999.0,  999.0,  999.0,  999.0,  999.0,  999.0,  999.0,    0.6,    0.3,    0.3,    0.4,   -0.0,    0.0,   -0.0,    0.2,   -0.1,   -0.0,   -0.0,   -0.2,    0.0,   -0.1,    0.0,   -0.0,   -0.3,    0.1,    0.1,    0.1,    0.2,    0.1,   -0.0,   -0.3,   -0.1,    0.2,   -0.1,    0.0,    0.0,   -0.2,   -0.1,    0.3,    0.4,    0.0,   -0.1,   -0.0,    0.1,    0.0,   -0.1,   -0.2,   -0.1,   -0.1,   -0.0,   -0.0,   -0.0,   -0.1,    0.1,    0.2,    0.0,    0.3,   -0.0,    0.1,    0.0,    0.2,   -0.2,   -0.1,  999.0,    0.1,   -0.0,   -0.0,   -0.3,   -0.1,   -0.1,  999.0,  999.0,  999.0,  999.0,  999.0,  999.0
2013/04/28 20:30,  999.0,  999.0,  999.0,  999.0,  999.0,  999.0,  999.0,  999.0,    0.4,    0.2,    0.1,    0.2,    0.6,    0.7,    0.4,    0.4,    0.2,    0.1,    0.0,    0.0,    0.1,    0.0,    0.2,   -0.3,   -0.1,   -0.1,    0.2,    0.2,    0.0,   -0.1,    0.2,    0.0,   -0.0,    0.1,    0.1,    0.1,   -0.2,    0.2,    0.0,   -0.0,    0.0,   -0.3,  999.0,   -0.0,   -0.5,   -0.1,   -0.1,    0.1,    0.2,   -0.1,    0.0,   -0.1,   -0.0,   -0.0,   -0.1,   -0.2,    0.1,   -0.0,   -0.0,    0.2,    0.1,    0.0,   -0.0,    0.1,    0.1,    0.2,   -0.3,   -0.1,  999.0,    0.5,    0.2,   -0.2,   -0.6,    0.1,    0.0,  999.0,  999.0,  999.0,  999.0,  999.0
2013/04/28 20:40,  999.0,  999.0,  999.0,  999.0,  999.0,  999.0,  999.0,   -0.6,  999.0,   -0.8,   -0.0,   -0.1,    0.4,    0.1,   -0.0,   -0.1,   -0.0,    0.1,   -0.0,    0.2,   -0.2,    0.1,   -0.1,   -0.0,   -0.0,    0.2,    0.2,   -0.1,   -0.0,    0.1,   -0.0,   -0.1,    0.1,   -0.0,   -0.3,    0.0,   -0.2,    0.1,  999.0,   -0.2,   -0.2,   -0.4,   -0.3,    0.2,   -0.2,   -0.0,    0.0,    0.1,    0.2,    0.1,   -0.0,   -0.1,    0.2,    0.0,   -0.1,   -0.0,    0.2,   -0.2,   -0.4,   -0.2,   -0.1,   -0.1,   -0.1,   -0.0,   -0.0,   -0.2,   -0.1,   -0.0,    0.1,   -0.1,  999.0,   -0.1,   -0.0,  999.0,  999.0,  999.0,  999.0,  999.0,  999.0,  999.0
2013/04/28 20:50,  999.0,  999.0,  999.0,  999.0,  999.0,  999.0,  999.0,    0.0,    0.2,    0.3,    0.4,    1.1,    0.3,    0.1,    0.1,    0.1,   -0.1,    0.1,    0.2,    0.0,   -0.1,   -0.3,    0.0,    0.2,    0.0,    0.1,    0.0,    0.1,    0.1,   -0.0,    0.1,    0.1,    0.0,   -0.3,    0.1,   -0.2,    0.1,   -0.3,   -0.1,   -0.2,   -0.2,   -0.2,    0.3,   -0.1,    0.0,    0.1,   -0.1,    0.0,    0.1,    0.1,   -0.0,    0.2,    0.0,   -0.1,   -0.2,   -0.1,   -0.0,   -0.0,   -0.1,    0.0,   -0.2,   -0.2,   -0.0,   -0.1,  999.0,    0.0,    0.1,    0.1,   -0.2,   -0.0,   -0.3,    0.0,   -0.2,   -0.1,   -0.2,  999.0,  999.0,  999.0,  999.0,  999.0
2013/04/28 21:00,  999.0,  999.0,  999.0,  999.0,  999.0,  999.0,  999.0,  999.0,  999.0,   -0.0,    0.4,    0.3,    0.3,    0.1,    0.4,    0.1,   -0.2,   -0.1,   -0.1,    0.0,   -0.1,   -0.1,    0.1,   -0.0,   -0.0,   -0.2,    0.0,   -0.0,    0.0,    0.2,   -0.1,    0.1,    0.1,    0.1,   -0.1,    0.1,    0.3,   -0.0,   -0.0,   -0.1,   -0.2,   -0.1,    0.2,    0.2,   -0.2,   -0.0,   -0.0,   -0.1,    0.0,   -0.1,   -0.2,    0.1,   -0.0,   -0.0,   -0.1,   -0.1,   -0.1,    0.1,   -0.1,   -0.2,    0.1,   -0.1,    0.1,    0.0,   -0.1,    0.1,    0.0,   -0.0,    0.1,   -0.0,   -0.1,    0.1,    0.2,    0.4,    0.4,  999.0,  999.0,  999.0,  999.0,  999.0
2013/04/28 21:10,  999.0,  999.0,  999.0,  999.0,  999.0,  999.0,  999.0,  999.0,  999.0,  999.0,    0.2,  999.0,   -0.0,   -0.1,    0.6,    0.2,    0.1,   -0.0,   -0.1,   -0.2,   -0.0,   -0.1,    0.0,    0.0,   -0.0,   -0.1,   -0.1,   -0.3,    0.0,   -0.1,    0.0,    0.1,   -0.1,   -0.1,   -0.1,    0.1,   -0.1,    0.0,    0.3,   -0.1,   -0.3,    0.1,    0.1,    0.0,   -0.0,   -0.0,   -0.1,    0.0,    0.0,    0.2,    0.1,   -0.0,   -0.0,   -0.0,    0.0,    0.1,   -0.1,    0.1,   -0.0,   -0.2,   -0.1,   -0.1,   -0.0,    0.2,    0.1,    0.0,   -0.0,    0.2,  999.0,   -0.2,   -0.1,   -0.0,  999.0,  999.0,  999.0,  999.0,  999.0,  999.0,  999.0,  999.0
2013/04/28 21:20,  999.0,    1.3,  999.0,  999.0,  999.0,  999.0,   -0.1,   -0.1,  999.0,   -0.6,  999.0,    0.4,    0.1,    0.3,   -0.1,    0.0,    0.0,   -0.0,    0.1,    0.2,   -0.2,   -0.1,    0.3,   -0.0,    0.0,   -0.1,    0.1,   -0.1,    0.1,    0.0,    0.2,   -0.1,   -0.1,   -0.0,    0.1,    0.4,    0.0,    0.1,    0.1,    0.0,   -0.2,   -0.1,   -0.1,   -0.1,    0.0,    0.1,   -0.0,   -0.0,   -0.2,   -0.2,    0.0,    0.2,    0.0,   -0.1,   -0.3,   -0.1,   -0.1,   -0.0,    0.1,    0.1,    0.2,    0.1,    0.0,    0.3,  999.0,    0.1,    0.0,   -0.0,   -0.2,   -0.3,    0.1,    0.1,  999.0,    0.2,    0.1,  999.0,  999.0,  999.0,  999.0,  999.0
2013/04/28 21:30,  999.0,  999.0,  999.0,  999.0,  999.0,  999.0,    0.2,    0.0,    0.0,   -0.2,    0.0,   -0.1,   -0.0,    0.1,    0.1,   -0.1,   -0.0,   -0.0,   -0.2,   -0.0,    0.1,    0.0,   -0.2,    0.2,   -0.2,   -0.1,   -0.0,   -0.1,   -0.0,    0.0,   -0.2,   -0.0,   -0.1,   -0.2,   -0.0,    0.1,   -0.1,    0.0,    0.1,   -0.1,   -0.2,   -0.3,    0.1,    0.3,    0.0,    0.1,    0.1,    0.2,    0.2,    0.1,    0.1,   -0.2,   -0.1,    0.1,   -0.2,   -0.1,   -0.3,   -0.2,   -0.2,   -0.1,    0.1,   -0.0,    0.0,    0.1,   -0.1,   -0.1,    0.2,    0.1,    0.1,    0.1,    0.1,    0.1,    0.1,    0.1,  999.0,  999.0,  999.0,  999.0,  999.0,  999.0
2013/04/28 21:40,  999.0,  999.0,  999.0,   -0.3,   -0.1,  999.0,  999.0,   -0.1,    0.5,    0.2,   -0.2,   -0.1,   -0.2,    0.0,    0.1,    0.0,    0.0,   -0.1,    0.1,  999.0,   -0.1,   -0.1,   -0.0,    0.0,   -0.2,   -0.1,    0.1,    0.2,    0.1,    0.1,   -0.0,    0.0,    0.0,   -0.0,    0.0,   -0.0,    0.0,    0.1,    0.0,   -0.1,   -0.0,    0.0,   -0.0,   -0.1,   -0.2,    0.0,   -0.0,   -0.2,   -0.2,   -0.0,   -0.0,    0.1,   -0.0,   -0.1,    0.1,   -0.0,   -0.2,    0.2,    0.1,    0.1,   -0.0,    0.1,   -0.2,   -0.1,    0.2,   -0.0,    0.2,    0.0,    0.1,    0.0,   -0.2,   -0.4,   -0.1,    0.0,  999.0,  999.0,  999.0,  999.0,  999.0,  999.0
2013/04/28 21:50,  999.0,  999.0,   -0.1,    0.2,    0.0,   -0.1,   -0.0,    0.0,    0.1,    0.1,   -0.2,    0.0,    0.1,    0.1,    0.2,   -0.0,   -0.0,   -0.0,    0.1,    0.1,    0.1,    0.0,   -0.1,    0.1,    0.1,   -0.1,   -0.0,   -0.2,    0.1,    0.0,   -0.1,   -0.1,   -0.1,   -0.1,   -0.1,    0.1,   -0.2,   -0.1,   -0.0,   -0.1,   -0.2,   -0.0,    0.1,   -0.1,    0.0,    0.0,   -0.0,   -0.0,   -0.1,    0.0,    0.1,    0.1,    0.2,   -0.2,   -0.1,   -0.1,    0.0,    0.1,   -0.1,   -0.1,   -0.1,   -0.1,    0.1,   -0.1,   -0.1,   -0.1,   -0.1,    0.1,   -0.0,    0.5,   -0.1,    0.2,    0.1,   -0.3,  999.0,  999.0,  999.0,  999.0,  999.0,  999.0
2013/04/28 22:00,  999.0,  999.0,  999.0,  999.0,  999.0,  999.0,  999.0,  999.0,    1.5,    0.1,    0.0,    0.0,   -0.1,    0.1,    0.1,    0.1,    0.1,    0.1,    0.1,    0.1,    0.1,    0.0,   -0.0,   -0.0,    0.1,   -0.0,    0.1,    0.1,    0.0,    0.2,    0.1,    0.0,    0.1,   -0.1,    0.1,    0.1,   -0.3,    0.0,   -0.1,   -0.1,   -0.1,    0.1,    0.2,    0.1,    0.1,   -0.1,   -0.2,   -0.1,    0.0,   -0.1,   -0.1,   -0.1,   -0.0,    0.1,    0.1,   -0.0,   -0.1,   -0.2,   -0.1,    0.1,    0.1,    0.0,    0.1,   -0.0,  999.0,    0.1,    0.1,    0.2,    0.2,    0.2,   -0.1,   -0.0,   -0.0,   -0.0,   -0.2,  999.0,  999.0,  999.0,  999.0,  999.0
2013/04/28 22:10,  999.0,  999.0,  999.0,  999.0,  999.0,  999.0,  999.0,  999.0,  999.0,   -0.5,   -0.4,   -0.1,   -0.3,   -0.0,    0.3,    0.2,    0.3,    0.3,    0.1,   -0.1,    0.2,    0.2,    0.1,    0.2,    0.1,    0.1,   -0.1,   -0.1,   -0.0,    0.1,    0.1,    0.0,   -0.1,   -0.1,    0.1,   -0.2,    0.3,    0.1,    0.1,   -0.1,   -0.2,   -0.2,   -0.2,    0.1,   -0.1,    0.1,    0.2,   -0.1,    0.1,    0.1,    0.1,    0.0,    0.2,    0.1,    0.2,   -0.1,   -0.1,    0.0,   -0.1,    0.0,    0.1,    0.1,    0.0,  999.0,  999.0,    0.0,    0.2,    0.1,    0.2,  999.0,  999.0,   -0.3,  999.0,    0.1,  999.0,  999.0,  999.0,  999.0,  999.0,  999.0
2013/04/28 22:20,  999.0,  999.0,  999.0,  999.0,  999.0,  999.0,  999.0,  999.0,  999.0,   -0.5,   -0.3,    0.1,   -0.1,   -0.3,   -0.1,   -0.1,   -0.0,   -0.2,   -0.0,    0.1,    0.2,    0.1,   -0.1,    0.1,    0.1,    0.0,    0.0,   -0.0,   -0.1,   -0.3,   -0.2,   -0.2,   -0.0,    0.1,    0.2,    0.2,    0.2,    0.3,    0.1,    0.1,   -0.1,   -0.1,    0.3,    0.1,    0.1,    0.0,    0.1,   -0.1,    0.0,    0.0,   -0.2,    0.1,   -0.0,   -0.1,    0.2,   -0.1,    0.2,    0.1,   -0.0,   -0.0,   -0.1,   -0.1,    0.1,   -0.2,  999.0,    0.1,    0.2,    0.1,   -0.1,   -0.3,  999.0,  999.0,   -0.1,    0.1,  999.0,  999.0,  999.0,  999.0,  999.0,  999.0
2013/04/28 22:30,  999.0,  999.0,  999.0,  999.0,  999.0,  999.0,  999.0,  999.0,  999.0,    0.5,    0.5,    0.3,    0.5,    0.4,    0.1,   -0.0,    0.0,    0.1,   -0.0,   -0.1,   -0.1,   -0.0,   -0.0,    0.1,   -0.1,    0.2,   -0.1,    0.2,    0.1,   -0.3,   -0.0,    0.1,    0.0,    0.2,    0.0,   -0.2,    0.2,   -0.2,   -0.2,   -0.2,   -0.2,   -0.1,    0.2,    0.3,    0.2,   -0.1,   -0.2,   -0.1,    0.0,    0.1,    0.2,   -0.1,    0.1,    0.1,   -0.1,    0.1,    0.2,    0.2,    0.1,    0.1,   -0.1,   -0.0,    0.0,   -0.1,  999.0,   -0.0,    0.0,    0.4,    0.0,   -0.0,  999.0,  999.0,    0.0,  999.0,  999.0,  999.0,  999.0,  999.0,  999.0,  999.0
2013/04/28 22:40,  999.0,  999.0,  999.0,  999.0,  999.0,  999.0,  999.0,  999.0,  999.0,   -0.1,  999.0,    0.4,    0.6,    0.2,    0.1,    0.0,    0.2,    0.1,    0.0,    0.0,    0.1,   -0.1,   -0.1,    0.1,    0.0,    0.1,    0.1,   -0.1,    0.0,   -0.1,   -0.2,   -0.2,   -0.2,    0.1,   -0.0,   -0.9,    0.1,   -0.0,    0.2,    0.2,   -0.0,    0.0,   -0.1,    0.1,   -0.0,   -0.3,   -0.1,   -0.1,   -0.1,   -0.1,    0.1,    0.0,    0.1,   -0.0,   -0.1,   -0.1,   -0.2,   -0.1,    0.1,    0.0,    0.1,    0.2,    0.1,   -0.0,  999.0,    0.0,    0.1,    0.0,   -0.3,  999.0,  999.0,  999.0,  999.0,    0.4,  999.0,  999.0,  999.0,  999.0,  999.0,  999.0
2013/04/28 22:50,  999.0,  999.0,  999.0,  999.0,  999.0,  999.0,  999.0,  999.0,  999.0,    0.4,  999.0,  999.0,  999.0,    0.1,    0.2,    0.2,    0.2,    0.2,    0.2,   -0.0,   -0.2,    0.0,   -0.1,   -0.2,    0.1,    0.2,    0.1,   -0.0,   -0.0,    0.2,   -0.1,    0.0,   -0.0,    0.0,    0.1,   -0.1,   -0.2,    0.0,    0.2,   -0.1,   -0.1,   -0.2,    0.1,   -0.3,   -0.2,   -0.1,   -0.0,   -0.0,    0.1,    0.2,    0.0,    0.3,    0.0,   -0.0,   -0.1,   -0.1,    0.1,   -0.2,   -0.1,    0.2,    0.1,    0.2,    0.1,   -0.1,   -0.2,   -0.2,    0.4,   -0.0,  999.0,    0.2,  999.0,  999.0,  999.0,  999.0,  999.0,  999.0,  999.0,  999.0,  999.0,  999.0
2013/04/28 23:00,  999.0,  999.0,  999.0,  999.0,  999.0,  999.0,  999.0,  999.0,  999.0,  999.0,  999.0,    0.2,    0.2,    0.1,    0.3,   -0.1,   -0.2,   -0.0,   -0.1,    0.0,   -0.0,   -0.2,   -0.2,   -0.1,    0.0,   -0.0,   -0.2,   -0.2,    0.2,   -0.0,    0.1,    0.1,    0.0,    0.0,   -0.3,   -0.1,    0.1,   -0.2,   -0.0,    0.1,   -0.2,   -0.2,  999.0,    0.1,    0.2,   -0.1,    0.1,    0.1,   -0.2,    0.1,    0.1,   -0.2,   -0.1,    0.1,    0.2,    0.0,    0.1,    0.0,   -0.1,    0.1,    0.0,    0.1,   -0.2,    0.0,   -0.3,    0.1,    0.1,  999.0,    0.1,  999.0,  999.0,  999.0,  999.0,  999.0,  999.0,  999.0,  999.0,  999.0,  999.0,  999.0
2013/04/28 23:10,  999.0,  999.0,  999.0,  999.0,  999.0,  999.0,  999.0,  999.0,  999.0,  999.0,  999.0,  999.0,  999.0,    0.6,    0.7,    0.1,    0.1,    0.2,    0.1,    0.2,   -0.1,    0.0,    0.1,   -0.1,   -0.1,    0.0,   -0.1,   -0.1,    0.0,    0.2,    0.1,    0.0,   -0.1,    0.1,   -0.0,    0.1,   -0.6,   -0.0,   -0.0,   -0.1,   -0.2,   -0.3,    0.1,   -0.1,  999.0,  999.0,    0.2,  999.0,   -0.4,   -0.2,   -0.4,  999.0,    0.3,    0.1,    0.0,    0.1,    0.2,    0.2,    0.2,    0.3,    0.1,    0.0,    0.4,   -0.1,    0.1,   -0.2,    0.2,  999.0,  999.0,  999.0,  999.0,  999.0,  999.0,  999.0,  999.0,  999.0,  999.0,  999.0,  999.0,  999.0
2013/04/28 23:20,  999.0,  999.0,  999.0,  999.0,  999.0,  999.0,  999.0,  999.0,  999.0,  999.0,  999.0,  999.0,  999.0,    0.3,    0.4,    0.0,   -0.0,    0.1,    0.1,    0.1,   -0.1,    0.1,    0.1,    0.1,    0.2,    0.1,    0.2,   -0.0,   -0.0,    0.0,   -0.0,   -0.0,    0.0,    0.1,   -0.2,   -0.2,   -0.3,   -0.1,   -0.0,    0.1,   -0.2,   -0.0,   -0.1,   -0.2,   -0.1,  999.0,    0.2,    0.0,    0.1,    0.1,    0.0,   -0.2,   -0.0,    0.2,    0.1,    0.0,   -0.0,    0.2,    0.4,    0.1,    0.1,   -0.1,   -0.0,    0.1,   -0.1,    0.0,  999.0,    0.0,    0.2,  999.0,  999.0,  999.0,  999.0,  999.0,  999.0,  999.0,  999.0,  999.0,  999.0,  999.0
2013/04/28 23:30,  999.0,  999.0,  999.0,  999.0,  999.0,  999.0,  999.0,  999.0,  999.0,  999.0,  999.0,  999.0,  999.0,  999.0,    0.2,    0.5,    0.0,   -0.0,    0.0,    0.1,    0.1,    0.1,   -0.1,   -0.1,   -0.0,   -0.3,   -0.2,    0.0,    0.0,   -0.1,   -0.2,    0.3,   -0.2,    0.1,   -0.0,   -0.3,   -0.5,    0.1,   -0.3,    0.1,   -0.3,   -0.0,    0.0,   -0.1,    0.1,    0.1,    0.0,   -0.0,    0.1,    0.1,   -0.1,   -0.4,   -0.1,    0.0,    0.1,   -0.0,   -0.1,    0.1,   -0.1,    0.4,   -0.2,    0.4,  999.0,   -0.2,   -0.1,   -0.1,   -0.1,   -0.3,  999.0,  999.0,  999.0,  999.0,  999.0,  999.0,  999.0,  999.0,  999.0,  999.0,  999.0,  999.0
2013/04/28 23:40,  999.0,  999.0,  999.0,  999.0,  999.0,  999.0,  999.0,  999.0,  999.0,    4.2,  999.0,  999.0,    0.0,   -0.2,   -0.2,   -0.0,    0.0,    0.1,    0.0,   -0.1,    0.1,    0.0,    0.2,    0.0,   -0.0,   -0.0,   -0.1,    0.1,    0.1,    0.1,   -0.1,    0.0,   -0.2,    0.1,    0.0,    0.1,   -0.3,   -0.0,    0.6,   -0.0,   -0.3,   -0.1,    0.1,   -0.0,    0.1,    0.2,   -0.1,    0.0,    0.0,    0.1,    0.2,    0.2,   -0.2,    0.0,    0.1,    0.2,    0.1,   -0.1,   -0.0,    0.3,    0.1,   -0.3,    0.2,   -0.4,    0.1,    0.2,   -0.1,    0.3,  999.0,  999.0,  999.0,  999.0,  999.0,  999.0,  999.0,  999.0,  999.0,  999.0,  999.0,  999.0
2013/04/28 23:50,  999.0,  999.0,  999.0,  999.0,  999.0,  999.0,  999.0,  999.0,  999.0,  999.0,    0.8,    0.7,    0.3,    0.0,    0.0,    0.1,    0.1,    0.1,    0.2,    0.0,   -0.1,   -0.1,    0.0,   -0.1,   -0.1,   -0.0,    0.1,    0.2,   -0.2,   -0.2,    0.0,    0.1,    0.1,    0.0,    0.0,    0.0,   -0.2,   -0.0,    0.0,   -0.1,   -0.2,   -0.1,    0.1,    0.1,    0.3,    0.1,    0.3,   -0.3,   -0.1,   -0.0,   -0.2,    0.0,    0.2,    0.2,   -0.1,    0.1,    0.1,    0.1,    0.3,   -0.0,    0.0,   -0.6,   -0.1,   -0.0,   -0.2,   -0.2,    0.1,  999.0,  999.0,  999.0,  999.0,  999.0,  999.0,  999.0,  999.0,  999.0,  999.0,  999.0,  999.0,  999.0
